              Height (m), 1500.0000, 1650.0000, 1800.0000, 1950.0000, 2100.0000, 2250.0000, 2400.0000, 2550.0000, 2700.0000, 2850.0000, 3000.0000, 3150.0000, 3300.0000, 3450.0000, 3600.0000, 3750.0000, 3900.0000, 4050.0000, 4200.0000, 4350.0000, 4500.0000, 4650.0000, 4800.0000, 4950.0000, 5100.0000, 5250.0000, 5400.0000, 5550.0000, 5700.0000, 5850.0000, 6000.0000, 6150.0000, 6300.0000, 6450.0000, 6600.0000, 6750.0000, 6900.0000, 7050.0000, 7200.0000, 7350.0000, 7500.0000, 7650.0000, 7800.0000, 7950.0000, 8100.0000, 8250.0000, 8400.0000, 8550.0000, 8700.0000, 8850.0000, 9000.0000, 9150.0000, 9300.0000, 9450.0000, 9600.0000, 9750.0000, 9900.0000,10050.0000,10200.0000,10350.0000,10500.0000,10650.0000,10800.0000,10950.0000,11100.0000,
 27-OCT-1996 16:37:07.27,    0.6539,    0.8222,    1.2537,    1.5674,    2.5169,    2.3659,    3.2382,    4.2035,  999.0000,    5.3226,    6.0684,    6.6811,    6.6795,    6.3003,    6.0345,    5.3908,  999.0000,    5.9287,    6.6175,    6.8846,    7.1608,    7.4003,    7.7545,    7.4250,    8.3037,    8.5357,    7.9700,  999.0000,    8.7731,    8.8966,    9.1377,   12.1186,   11.5610,   12.2393,   15.8360,   15.9488,   16.5781,   17.2704,   18.7411,   20.0486,   20.4547,   21.5090,   22.3308,   23.6300,   28.1720,   31.9899,   33.7600,   35.9050,   39.1885,   42.0210,   42.6441,   43.9133,  999.0000,  999.0000,  999.0000,  999.0000,  999.0000,  999.0000,  999.0000,   50.1198,   50.0746,   49.1143,  999.0000,   48.0379,   35.4366,
 27-OCT-1996 16:39:46.29,    0.2077,    0.3214,    0.8513,    1.9138,    2.5535,    1.9838,    2.9162,    4.1883,    4.6433,    5.1068,    5.9010,    6.7541,    6.7185,    6.3135,    6.0520,    6.1554,    5.8639,    5.6786,    6.5717,    7.0434,  999.0000,    7.8342,    8.1137,    6.4607,    8.1891,    8.5327,    8.4974,    7.5664,    9.1438,    8.5900,   10.1979,   12.1896,   12.7574,   13.8455,   14.7544,   14.8151,   16.1453,  999.0000,   17.7585,   18.7883,   19.4011,   21.5425,   22.1423,   24.2931,   27.6042,   31.7096,   33.6152,   35.1603,   38.0692,   39.9829,   40.7111,   42.3432,  999.0000,  999.0000,  999.0000,  999.0000,  999.0000,  999.0000,  999.0000,   48.7924,   49.0554,   48.8328,   49.2370,   48.3406,   48.8290,
 27-OCT-1996 16:42:26.07,    0.6670,    1.0424,    0.7137,  999.0000,    2.5553,    3.2409,    3.6994,    4.4036,    4.8753,    4.9168,    5.3744,    6.0559,    6.4786,    6.3213,    6.1209,    6.0175,  999.0000,    5.7493,    6.4805,    7.3881,    8.2918,    8.0330,    8.2222,    7.9492,    8.1845,    8.5871,    8.7379,    8.4559,  999.0000,    8.3050,    9.3825,   12.4457,   13.1519,   13.7637,   14.4674,   14.9258,   15.9550,   16.3684,   17.3672,   18.5581,   19.8166,   21.4168,   21.4651,  999.0000,   27.1711,   31.3165,   33.1825,   34.8541,  999.0000,  999.0000,  999.0000,  999.0000,  999.0000,  999.0000,  999.0000,  999.0000,  999.0000,  999.0000,  999.0000,   49.2481,   49.5106,   49.0795,   49.4436,  999.0000,  999.0000,
 27-OCT-1996 16:45:03.04,    0.7644,    1.2601,    1.5396,    2.6043,    3.1280,    3.5855,    4.1414,    4.6019,    4.9326,  999.0000,    5.8419,    6.3249,    6.6621,  999.0000,    6.2588,    6.1026,    5.7752,    6.0047,    6.5531,    7.1560,  999.0000,  999.0000,    7.5126,    8.3410,    7.7755,    8.5874,    8.3982,    8.9193,  999.0000,    8.4645,    9.2992,   12.5489,   13.0737,   13.6741,   14.3736,   15.0061,   15.9586,   16.3223,   17.1928,   18.4874,   20.1213,   21.4542,   21.6121,  999.0000,   27.5590,   31.4699,   33.3302,   35.2479,  999.0000,  999.0000,  999.0000,  999.0000,  999.0000,  999.0000,  999.0000,  999.0000,  999.0000,  999.0000,  999.0000,   49.1888,   49.6811,   49.2191,   49.2576,  999.0000,  999.0000,
 27-OCT-1996 16:50:34.59,    0.6862,    0.8793,  999.0000,    2.0383,    2.3184,    3.3599,    3.9112,    4.3122,    4.8749,    5.3362,    6.0839,    6.7352,    6.7130,    6.5141,    6.3373,    5.9120,  999.0000,    5.4861,    6.5036,    7.0701,    7.6012,    8.2004,  999.0000,    6.4713,    7.2352,    8.2955,    8.0969,    8.7279,    8.9141,    8.8684,   10.6503,   12.2035,   12.6330,   13.3125,  999.0000,  999.0000,   16.0467,   16.5317,   16.9867,   18.3202,   20.2875,   21.3714,   22.0977,   25.0211,   29.1598,   32.2469,   34.1935,   37.1054,   39.5115,   40.9075,  999.0000,  999.0000,  999.0000,   44.8539,   45.0051,   45.8685,   45.9761,   45.5575,   46.3371,  999.0000,   48.5584,  999.0000,  999.0000,   47.0710,   47.6731,
 27-OCT-1996 16:53:11.93,    0.5600,    0.7482,    1.2760,    2.5735,    3.1503,    3.3740,    3.4523,    3.5776,    4.5297,  999.0000,    5.8168,    6.6376,    5.9224,    5.9074,    6.2265,    5.6516,    4.9208,    5.1277,    6.1254,    6.9695,    7.6028,  999.0000,    7.4218,    6.7035,    7.1996,    7.5959,    8.1237,    8.0512,    8.8186,    8.3436,   10.5086,   12.0135,   12.3469,  999.0000,  999.0000,  999.0000,  999.0000,   16.3032,   16.3099,   18.2176,   19.6242,  999.0000,  999.0000,   24.7248,   28.5428,   31.7071,   33.9292,   36.9688,   39.6798,   40.7695,   41.5730,   42.2067,   43.6957,   44.0073,   44.2533,  999.0000,  999.0000,   45.5176,   46.5160,   48.8110,   48.8932,   48.1463,   48.2383,  999.0000,   47.7141,
 27-OCT-1996 16:55:51.83,    0.5455,    0.8164,    1.2879,    2.0194,    2.6562,    3.0402,    3.4002,  999.0000,    4.5502,    5.0718,    5.4875,    6.5196,  999.0000,    5.2490,    5.9207,    5.8004,    5.4315,    5.3360,    6.2093,    7.0438,    7.1396,    7.0779,    7.0115,    5.9823,    6.9725,    7.4122,    7.7847,    8.1808,    8.3087,    8.7162,   10.0012,   11.5531,   12.0022,   12.7210,   13.8478,   14.6358,  999.0000,   15.6622,   16.2805,   17.5844,   19.4624,   21.1256,   21.8396,   24.6488,   28.5111,   31.6034,   34.1053,   36.8708,   39.4393,   40.7054,   41.1564,   42.2651,  999.0000,  999.0000,  999.0000,   46.2003,   45.7287,   45.8081,   46.5791,   48.6239,   49.4239,  999.0000,  999.0000,  999.0000,   50.6673,
 27-OCT-1996 16:58:28.98,    0.1682,    0.7719,    1.3066,    1.2156,    2.4221,    3.3755,    3.5619,    3.6693,    4.4561,    5.0144,    5.7086,  999.0000,  999.0000,  999.0000,    6.0297,    5.8277,  999.0000,    4.5525,    5.6489,  999.0000,    6.7420,    7.4189,    7.7271,    6.7320,    6.9198,    7.3403,    7.9266,    7.6191,    8.8778,    8.7656,    9.8943,   11.5435,   12.2563,   12.9172,   13.9828,  999.0000,  999.0000,   16.0579,   16.5167,   17.7668,   19.7441,   21.2107,   22.2564,   24.9102,   28.9300,   31.9548,   34.3535,   36.9216,   39.5278,   40.6080,   40.9860,   42.3717,   43.3355,   44.2529,   45.4404,   46.3177,  999.0000,  999.0000,  999.0000,   48.7303,  999.0000,   48.5993,  999.0000,   50.3701,   50.3272,
 27-OCT-1996 17:01:08.34,    0.0045,  999.0000,    2.0859,    3.1117,    3.2359,    3.6460,    3.9960,    4.2686,    4.6768,    5.3020,    6.0499,    6.4079,    5.3968,    5.3693,    5.6438,    5.1914,    5.2350,  999.0000,    6.1833,    6.6137,  999.0000,    7.1080,    7.6827,    7.3837,    6.9515,    7.5420,    7.8760,    8.1397,    8.7413,    8.6598,    9.8197,   11.4297,   11.3361,   11.7303,  999.0000,    1.9411,    1.3274,  999.0000,  999.0000,  999.0000,   20.0146,   21.2095,   22.3884,  999.0000,  999.0000,  999.0000,   34.4178,   36.9215,   40.0117,   41.1367,   40.8216,   42.5244,  999.0000,  999.0000,  999.0000,  999.0000,  999.0000,  999.0000,  999.0000,  999.0000,  999.0000,  999.0000,  999.0000,   48.7494,   47.8915,
 27-OCT-1996 17:03:45.62,    0.0892,    0.1526,    1.6367,    2.5477,    2.7146,    3.3615,    3.8441,    4.2491,    4.7630,    5.4741,    6.2082,    6.4280,    5.0768,    5.5914,    6.0936,    5.8503,    5.3170,  999.0000,    6.0706,    6.5497,    6.9464,    6.7734,  999.0000,  999.0000,  999.0000,  999.0000,  999.0000,  999.0000,  999.0000,  999.0000,  999.0000,  999.0000,  999.0000,    0.1955,    0.7947,  999.0000,  999.0000,  999.0000,  999.0000,  999.0000,  999.0000,  999.0000,  999.0000,  999.0000,  999.0000,  999.0000,  999.0000,  999.0000,  999.0000,  999.0000,  999.0000,  999.0000,  999.0000,   37.1221,  999.0000,  999.0000,  999.0000,  999.0000,  999.0000,   47.0801,   47.5139,   47.6962,  999.0000,   48.3460,   47.5660,
 27-OCT-1996 17:06:22.86,    0.1639,    0.2262,    1.1869,    2.0287,  999.0000,    2.8755,    3.2231,    3.8766,    4.5645,    5.6831,    6.3820,    6.4031,    5.2637,    5.8515,    6.0220,    6.2034,    5.8033,    5.9460,    6.6828,    7.5158,    7.1139,    7.4629,    8.4858,    7.0316,    7.1706,    7.4141,    7.9071,    7.3554,    7.8940,  999.0000,    0.2707,    0.9750,  999.0000,   13.5145,   13.8362,   12.6468,   13.6110,   15.8762,   16.3657,   17.7418,   19.6241,   20.7605,   22.2914,   25.2981,   28.6522,   31.4150,   34.1987,   36.9817,   39.8116,   41.6954,   41.5647,   42.7725,   44.0211,   41.5647,   45.1512,   46.4516,   46.2095,   46.5194,   47.2149,   47.8035,   48.7659,   48.2136,  999.0000,   48.1803,   48.4506,
 27-OCT-1996 17:09:00.25,    0.0877,    0.0786,    0.6275,    1.4919,    2.7354,    3.2110,  999.0000,    3.8270,    4.5242,  999.0000,    5.9719,    6.3925,    5.7513,    5.9183,    6.2508,    6.4084,    6.0979,  999.0000,  999.0000,  999.0000,    6.9923,    7.5468,    7.6417,    4.7605,    5.5895,    7.3094,    7.1377,    6.1299,    6.7564,    6.7857,    7.6839,  999.0000,    0.0523,    2.9433,  999.0000,   13.6199,   15.2702,   16.0901,   15.9102,   19.0985,   20.9339,   21.3727,   23.2611,   25.2632,   28.5105,   31.6828,   34.4930,   37.4997,   39.7939,   41.2642,   40.9262,  999.0000,  999.0000,  999.0000,  999.0000,  999.0000,  999.0000,  999.0000,  999.0000,   48.5481,   49.6563,   48.2019,  999.0000,  999.0000,  999.0000,
 27-OCT-1996 17:11:39.72,  999.0000,  999.0000,    1.3705,    2.0185,    3.4774,    3.7987,    3.8336,    3.9436,    4.3970,    5.1945,    5.8598,    6.2799,    5.8002,    6.1025,    6.3780,    6.7077,    6.4471,    6.4558,    6.9023,    7.3326,    7.4941,    7.5988,    7.3752,    5.5250,    6.6620,    7.7728,    7.9812,    6.4360,    7.6282,  999.0000,    8.9727,   10.9376,  999.0000,  999.0000,   12.1763,  999.0000,  999.0000,  999.0000,   16.1981,   18.0214,   19.9164,   21.3887,   23.1198,   25.5625,   28.7040,   31.8684,   34.6864,   37.4582,   39.4010,   41.2590,   41.5958,   42.9613,   43.3590,   43.0458,   44.9135,   46.9106,   46.0971,   46.7111,  999.0000,   48.0729,   49.7835,  999.0000,  999.0000,  999.0000,  999.0000,
 27-OCT-1996 17:14:16.82,    0.2147,    0.2307,    0.6174,    1.2112,  999.0000,    3.3225,    3.6390,  999.0000,  999.0000,  999.0000,    5.6757,    5.9887,    6.1984,    6.3246,    6.5745,    6.6235,    6.6631,    6.6887,    6.9781,    7.3387,  999.0000,    7.8508,    6.8932,    6.9818,    7.8065,    7.9902,    8.1563,  999.0000,    8.1960,  999.0000,    9.7373,   11.2705,   10.3510,  999.0000,   12.9396,   14.0795,   14.9868,   15.5473,   16.2043,   17.8125,   21.2237,   22.7529,   23.3091,   25.7699,   29.1411,   31.9131,   34.6874,   37.3761,   39.0853,   40.9772,   41.0991,   42.4164,   43.6874,  999.0000,  999.0000,  999.0000,  999.0000,  999.0000,  999.0000,  999.0000,  999.0000,   48.1395,   49.3150,  999.0000,  999.0000,
 27-OCT-1996 17:16:53.79,    0.6792,    0.7525,    0.7159,  999.0000,    2.1480,    2.8154,    3.5122,    3.9673,    4.4140,    4.5971,    5.1671,    5.2854,    5.2833,    6.0937,    6.4490,    6.6712,  999.0000,    6.3429,    6.8158,    7.2251,    7.2367,    7.5844,  999.0000,    2.3714,    3.0321,    7.3176,    3.4317,    2.5182,  999.0000,  999.0000,    5.5930,  999.0000,  999.0000,   11.8553,   13.4046,   13.8657,   14.1992,   15.4200,   15.9910,   16.9674,   19.7448,   21.6117,   22.7132,   25.6792,   28.7443,   31.5193,   34.5067,  999.0000,  999.0000,  999.0000,  999.0000,  999.0000,  999.0000,  999.0000,  999.0000,  999.0000,  999.0000,   46.0671,   47.1508,   46.8694,  999.0000,  999.0000,  999.0000,  999.0000,  999.0000,
 27-OCT-1996 17:19:30.77,    1.1182,    1.0043,    0.9089,    1.2478,    2.2535,    3.2626,    3.6936,    3.7272,    4.1989,    4.6305,    5.4939,    5.7115,    5.7029,    6.5372,    6.4228,    6.4270,    6.4283,    6.2383,    6.7145,    6.9440,    7.5438,    8.1715,    7.2332,    5.1539,    5.5245,    8.0818,    6.4321,    5.6951,    8.8522,  999.0000,    7.7416,   10.8170,   11.2011,   12.9852,   13.4884,   13.9124,   14.6571,   15.2867,   15.6613,   16.6012,   18.9913,   20.7951,   22.2096,   25.4280,   28.6380,   31.7212,   34.4715,   36.4831,   38.2910,   40.3716,   41.0027,   42.2636,   44.2381,   44.2176,   44.3014,   44.5045,   44.1512,   45.3003,   45.5842,   46.4513,   47.0994,   47.7264,  999.0000,   47.3299,   47.6389,
 27-OCT-1996 17:22:07.84,    0.2434,    0.3151,    0.5079,    1.5678,    2.8617,    3.3215,    3.3804,    3.5381,    4.1966,    4.6780,    5.2652,    5.8109,    5.8940,    5.8931,    6.0677,    5.7022,  999.0000,  999.0000,  999.0000,    7.2037,    7.8828,    8.8072,  999.0000,    7.1491,    7.5779,    8.0360,    8.1011,    7.7584,    8.8185,  999.0000,    9.2081,   10.9875,   12.1125,   13.2860,   13.8793,   14.1764,   14.6412,   15.1668,   15.8551,   16.5311,   18.8524,   21.0547,   22.6615,   25.4821,   28.7224,   31.5959,  999.0000,  999.0000,  999.0000,  999.0000,  999.0000,   43.0538,  999.0000,  999.0000,  999.0000,  999.0000,  999.0000,  999.0000,  999.0000,  999.0000,  999.0000,   47.4576,   46.6070,   47.6759,   47.7765,
 27-OCT-1996 17:24:44.77,    0.4581,    0.3074,    0.3163,    1.4639,    2.9852,    3.2312,    2.9868,    3.8936,    4.3604,    5.0752,    5.3788,    5.8754,    5.7739,    5.6741,    6.3512,    6.2840,    6.4105,    6.3661,    6.4814,  999.0000,  999.0000,  999.0000,    7.6035,    6.8251,    7.1206,    7.5369,    7.9752,    8.4918,    9.0005,    8.1675,    9.4982,   10.8967,   11.6271,  999.0000,   13.1171,  999.0000,   13.8648,   13.3854,   14.9824,   16.6426,   18.5821,   20.7393,   22.8697,   25.7799,   28.7294,   31.9100,   35.2061,   37.4762,   38.8797,   41.0722,   42.7322,  999.0000,  999.0000,  999.0000,  999.0000,  999.0000,  999.0000,   44.5000,   45.3396,   47.0025,   47.3372,   47.3193,  999.0000,   46.5697,   47.4158,
 27-OCT-1996 17:27:23.87,    0.0689,    0.0722,    0.4751,    0.7155,  999.0000,    3.0852,    2.6580,  999.0000,    4.1187,    4.6253,    5.0562,    5.7858,    5.3551,    5.4246,    6.2379,    6.2386,    5.7902,    5.5912,    6.1903,    6.9373,    7.3119,    8.2601,    7.8730,    6.4556,    7.1036,    7.5486,    7.6586,    7.5445,  999.0000,  999.0000,    9.5100,   11.0187,   11.1599,   13.0428,   13.1522,   14.0774,  999.0000,  999.0000,   15.5095,   16.4473,   18.7296,   20.9089,   22.8424,   25.6653,   28.7872,   31.7987,   35.0326,   37.5282,   39.6949,   41.5498,   41.4257,   42.8570,  999.0000,   46.0956,   44.7718,  999.0000,  999.0000,   44.1339,   45.2238,   46.9570,   47.8868,   47.9250,   47.1981,   45.6785,   46.8218,
 27-OCT-1996 17:30:02.92,    0.5890,    0.8977,    0.8450,    0.7464,    2.5197,    3.0848,    2.1298,  999.0000,    3.7044,    4.3058,    4.7525,  999.0000,    5.4214,    5.2158,    5.9733,    6.0011,    5.3812,    5.5562,    6.1115,    7.2698,    7.3587,    7.9225,    7.7677,    6.9779,    7.1504,    8.1406,    7.9340,    7.9828,    7.7068,  999.0000,    8.8631,   10.9076,   11.8017,   13.0513,   13.0234,   13.4474,   13.7349,   14.5522,   15.7288,   16.2170,   18.2764,   20.5304,   22.5798,   25.1875,   28.5720,   31.8915,   34.8667,   37.2162,   39.2260,   41.1978,   41.2242,   42.3840,   45.2129,   46.8153,  999.0000,  999.0000,  999.0000,   45.3150,   45.7423,   46.7158,   48.4953,   48.7566,   49.5291,  999.0000,   47.3991,
 27-OCT-1996 17:32:42.03,    1.5211,    3.0646,    2.3948,    1.6466,    2.5876,    3.5599,  999.0000,    4.3044,    3.3173,    4.5681,    4.8866,    5.2440,    5.3296,  999.0000,    5.6697,    5.6251,    5.6044,    5.9193,    6.6472,  999.0000,    7.2025,    6.7134,    7.1822,    6.6476,    6.4788,    7.7146,    7.7632,    7.4581,    9.6752,  999.0000,  999.0000,   10.6853,   10.3687,  999.0000,   12.7963,   13.1133,   13.9774,   14.8977,   15.5098,   16.9197,   18.6372,   20.7214,   22.8111,   25.0847,   28.4981,   31.7971,   35.0651,   37.4745,   39.1803,  999.0000,  999.0000,  999.0000,  999.0000,  999.0000,  999.0000,  999.0000,   45.0095,   45.6108,   46.3062,   47.4897,   48.5315,   47.8515,  999.0000,  999.0000,   47.1063,
 27-OCT-1996 17:35:18.96,    1.0777,  999.0000,  999.0000,    1.1103,    2.2062,    2.9410,    3.1611,    3.3000,  999.0000,    4.0829,    4.7873,    5.1164,    4.8699,  999.0000,    5.1775,    5.2971,    5.7467,    5.9727,    6.5436,    7.0620,    6.9256,    6.7250,    7.2951,    7.2957,    6.8810,    8.3972,    8.3103,    7.5726,  999.0000,  999.0000,    9.6907,   10.7218,  999.0000,  999.0000,   12.4175,   12.9689,   14.5217,   14.8250,   15.4421,   16.9098,   18.6699,   20.7599,   22.8151,   25.2175,   28.5444,   31.8587,   35.3495,  999.0000,  999.0000,  999.0000,  999.0000,  999.0000,   44.6617,   43.9449,  999.0000,   44.6224,   45.8953,   47.0533,   47.2704,   47.0480,   47.0440,   47.3179,   48.5042,   46.8060,   47.2154,
 27-OCT-1996 17:37:57.43,    1.8873,    2.5332,    2.4070,    2.2874,    2.0463,    2.3611,    2.8416,    2.9207,    3.1753,    3.6500,    4.4814,    5.0324,    4.8633,    5.4379,    5.7491,    5.5502,  999.0000,    5.4176,    5.8018,  999.0000,    7.6358,    7.5464,    7.5320,    7.7072,    7.4898,  999.0000,    8.5920,    8.3530,    7.5661,    7.0580,    9.6295,   11.0412,   11.4410,   12.9908,   13.0534,   12.8137,   13.2585,  999.0000,  999.0000,   16.8653,   18.7971,   20.7902,   23.0454,   25.4978,   28.6002,   31.9318,   35.3339,   37.5869,   39.4619,   41.5744,   41.9469,   43.7030,  999.0000,  999.0000,   43.6166,   44.9991,   46.2132,   48.0377,   47.7331,   47.0949,   47.1667,   47.6761,   47.2511,   46.9573,   47.6880,
 27-OCT-1996 17:40:34.72,   -0.1552,    0.3900,    0.7611,    0.6004,  999.0000,    2.5298,    3.9078,    3.4779,    3.8247,    4.4524,    4.7710,    5.0117,    5.4118,  999.0000,    5.7019,    5.8393,    5.2491,    5.4860,    5.9966,    6.7056,    6.4703,    7.0719,    6.9111,    5.6168,    4.7514,    5.1411,    8.6062,    8.7097,    8.8683,    8.7332,    6.7847,  999.0000,  999.0000,  999.0000,  999.0000,  999.0000,  999.0000,  999.0000,  999.0000,  999.0000,  999.0000,  999.0000,   23.2622,   25.7068,   28.4436,   31.8043,   35.0090,   37.1331,   39.0060,  999.0000,  999.0000,  999.0000,   34.8654,   33.4893,  999.0000,  999.0000,  999.0000,  999.0000,  999.0000,  999.0000,  999.0000,  999.0000,   41.2130,   43.2508,  999.0000,
 27-OCT-1996 17:43:14.02,   -0.3208,    0.1539,    1.1591,    1.5296,    1.2830,    2.7579,    3.6712,    3.3900,    4.2572,    4.8213,    4.8447,    5.0203,    5.7630,  999.0000,    5.8150,    5.8584,    5.7613,    6.0971,  999.0000,    6.7826,    6.6779,    7.0386,    7.1873,    6.0209,    7.6201,    7.3299,    9.4150,    9.3102,    9.3020,  999.0000,    8.2143,  999.0000,  999.0000,  999.0000,   12.3671,  999.0000,  999.0000,   13.9835,   15.6682,   16.9212,   17.9805,   20.2441,   22.3714,   24.3715,   28.1312,   31.2397,   34.7158,   37.2045,   39.0915,   40.5691,  999.0000,  999.0000,  999.0000,  999.0000,  999.0000,  999.0000,  999.0000,  999.0000,  999.0000,  999.0000,  999.0000,   47.8737,   44.5171,  999.0000,   48.4018,
 27-OCT-1996 17:45:51.48,    0.1046,    0.2283,    0.4974,    1.6581,    2.5800,    3.2133,    3.4257,    3.5050,  999.0000,    4.6548,    4.7424,    5.4035,    6.0440,    6.1872,    6.1844,    6.3997,    6.2702,    6.5663,    7.0978,    7.3519,    7.6215,    7.8233,    8.0026,    7.1403,    8.3346,    8.6029,    9.1811,    9.5893,    9.4670,  999.0000,    9.6064,   12.4067,   12.9425,   13.0580,   13.3267,   14.2318,  999.0000,  999.0000,   15.8998,   16.9519,   17.9678,   20.5616,   22.9283,   25.0280,   28.4762,   31.6863,   34.6994,   37.0584,   38.8599,   40.0914,   41.5027,   42.9922,  999.0000,  999.0000,   44.2263,   45.9350,   46.2536,   46.2240,   46.8673,   48.4089,   48.4277,   47.3279,   46.1783,  999.0000,   48.3967,
 27-OCT-1996 17:48:30.70,    0.2358,    0.4165,    1.0349,    1.5554,    1.6583,    2.7185,    2.9769,    3.1531,    4.1984,    5.0841,    5.4112,    5.7891,    5.8739,    6.1522,  999.0000,    6.4828,    6.1871,    6.6005,    7.3576,    7.6735,    7.5658,    7.2893,    7.6100,    7.7538,  999.0000,    9.7828,    8.7196,    9.3980,    9.2498,  999.0000,    9.7271,    9.9231,  999.0000,  999.0000,  999.0000,  999.0000,  999.0000,  999.0000,  999.0000,  999.0000,   18.1425,   17.4860,  999.0000,  999.0000,  999.0000,  999.0000,   35.9640,   37.5745,   39.2538,   40.1191,  999.0000,  999.0000,  999.0000,  999.0000,  999.0000,   46.9220,   46.0011,   10.1180,   11.1303,  999.0000,  999.0000,  999.0000,  999.0000,  999.0000,  999.0000,
 27-OCT-1996 17:51:10.41,    0.1014,    0.1113,  999.0000,    1.9184,    2.0243,    2.6375,    2.6095,    2.6446,    3.7144,    4.2998,    5.1259,    6.0548,    5.8807,    6.1091,    6.5870,    6.4574,    6.1827,    6.4098,    7.2536,    7.1812,    6.9769,    7.8272,    7.7822,    7.3225,    6.1395,    8.3012,    8.4055,    8.7817,    9.6209,    9.4546,    9.5470,   10.6272,  999.0000,  999.0000,  999.0000,  999.0000,  999.0000,   14.5900,   15.9074,   16.5032,   17.9310,   20.3017,   22.9316,   25.4638,   28.8391,   32.2606,   34.7677,   37.3947,   39.0924,   40.0195,   41.7912,   42.7561,   40.3508,   40.5820,  999.0000,  999.0000,   45.1251,   32.3844,   33.2880,  999.0000,   46.1245,   46.8462,   45.2421,   44.9903,  999.0000,
 27-OCT-1996 17:53:49.36,    0.0644,    0.1876,  999.0000,  999.0000,    2.0577,    2.1389,    2.2623,    2.5100,    2.8542,    3.1403,    4.2665,    5.2546,    5.0851,    5.3235,    6.2069,    6.2137,    5.5799,    5.6161,  999.0000,    5.6887,    6.5444,    7.2153,    7.8794,    6.8750,    6.3223,    8.2710,    7.9427,    8.0370,    8.4100,    2.3557,    3.1852,  999.0000,   12.2532,   12.6834,   13.0566,   13.1516,  999.0000,  999.0000,   15.5842,   16.2221,   18.0367,   20.2551,   22.9319,   25.5439,   28.7241,   32.0878,   34.9268,   37.1970,   38.4980,   39.7280,   41.8975,  999.0000,  999.0000,  999.0000,  999.0000,   46.1835,   45.3347,  999.0000,   46.9527,   47.8749,  999.0000,   47.8608,   46.0362,  999.0000,   48.8491,
 27-OCT-1996 17:56:28.96,    0.3368,    0.8104,    1.4301,    1.7762,    2.1806,  999.0000,    2.7503,    2.8022,    3.1165,  999.0000,    4.2762,    4.4778,    4.7728,    4.9117,    5.3625,  999.0000,    5.4389,    5.6431,    6.1760,    6.0138,    6.4931,    6.6412,    7.1039,  999.0000,  999.0000,  999.0000,    6.8929,  999.0000,  999.0000,  999.0000,    7.0638,   10.7946,   11.8915,   12.8820,   13.3471,   13.2020,  999.0000,   14.7720,   15.9263,   16.1674,   18.4177,   20.3277,   22.7397,   25.5337,  999.0000,  999.0000,   34.7779,   36.8092,   38.0448,   39.2239,   40.9862,  999.0000,   42.1634,   41.8822,   44.1241,   44.8562,   45.1360,   45.4288,   46.9949,   47.3905,  999.0000,   47.2123,   46.3567,  999.0000,  999.0000,
 27-OCT-1996 17:59:06.25,    1.2283,    1.6644,    1.7976,    1.7090,    2.2923,    2.4410,    2.5699,    2.6106,    3.8941,    4.7542,    5.2216,  999.0000,    6.0307,    5.8391,    6.2573,    5.9964,    5.9128,    5.9405,    6.2619,    6.7253,    6.2440,    6.5273,    7.4715,    7.5414,    5.8941,  999.0000,    7.6909,  999.0000,  999.0000,  999.0000,    9.6922,   10.9348,   12.1848,   12.7227,   13.2365,   13.7031,  999.0000,  999.0000,   15.9465,   16.7607,   18.4956,   20.2154,   22.7665,   25.4989,   28.8900,   32.2274,   34.6382,   36.9370,   37.9268,   38.6212,   41.2015,   43.5897,   43.0656,  999.0000,  999.0000,   45.7340,   46.0470,   45.1105,  999.0000,  999.0000,  999.0000,   48.6506,   47.6251,   47.1102,   49.4172,
 27-OCT-1996 18:01:45.45,    0.3040,    0.5542,    1.3465,    1.8616,    2.1437,    2.2329,    2.4518,    1.8648,    3.0037,    4.0435,    4.7921,  999.0000,    5.5111,    5.7795,    6.2380,    6.0361,    5.6026,    5.7108,    5.9490,    6.3918,  999.0000,  999.0000,  999.0000,    7.1923,    6.5069,    8.2466,    8.0561,  999.0000,   11.5427,    9.3941,   12.1265,  999.0000,  999.0000,  999.0000,   13.3215,   13.3361,  999.0000,  999.0000,   16.2435,   16.7821,   18.2151,   20.3698,   23.0936,   25.8203,   29.1187,   32.1378,   34.5538,   37.0536,   38.0595,   39.0024,   41.9857,  999.0000,  999.0000,  999.0000,   45.0447,   46.3472,   46.2944,  999.0000,   46.5046,   47.0585,   47.4288,   46.3154,   46.3629,   47.1670,  999.0000,
 27-OCT-1996 18:04:22.53,    0.5433,    0.7556,    1.7002,    1.9863,    2.1098,    2.6403,    3.4832,    3.3154,    3.4127,    3.9344,    4.2047,    4.5587,    5.2036,  999.0000,  999.0000,  999.0000,  999.0000,    5.9410,    6.2742,    6.8513,    6.1723,    7.3171,    7.1851,    7.2670,    7.7368,    8.0741,    7.9401,  999.0000,    9.1895,    9.5847,    9.1605,   10.9377,   12.3131,   12.7766,   12.2827,  999.0000,    0.4223,    3.1207,   15.3750,   16.5907,   18.1340,   20.2828,   22.8356,   25.4470,   28.6464,   31.8149,   34.9285,   37.2564,   38.1977,   39.6283,   42.1807,   43.9900,  999.0000,  999.0000,  999.0000,  999.0000,  999.0000,  999.0000,   47.2722,   47.8658,   47.9760,  999.0000,   46.7438,  999.0000,   49.7397,
 27-OCT-1996 18:07:01.56,    0.1780,    0.5758,    1.3552,    1.4456,    1.9900,    2.8390,    3.4734,    3.0023,    3.0726,    3.4927,    3.9348,    4.6011,  999.0000,    4.9662,    5.3949,    5.2493,  999.0000,  999.0000,    5.9358,    6.3623,    6.1302,    6.7055,    7.2760,    5.0004,    3.4854,    5.2541,  999.0000,  999.0000,  999.0000,    8.3071,    7.6867,    9.4809,   11.6194,   12.5126,   12.1856,   12.9375,  999.0000,  999.0000,  999.0000,   16.8092,   17.7211,  999.0000,  999.0000,  999.0000,  999.0000,   31.3621,   34.5828,   37.0640,   38.4459,   39.9452,   41.9844,  999.0000,  999.0000,  999.0000,  999.0000,  999.0000,  999.0000,  999.0000,  999.0000,   47.2425,   47.3369,   46.3225,   47.1837,   47.6136,   49.8104,
 27-OCT-1996 18:09:40.64,   -0.3571,    0.2988,    0.5633,    1.0719,    1.8329,    2.5775,    3.5736,  999.0000,  999.0000,  999.0000,    4.2529,    4.8125,    5.1313,    4.9345,    5.3073,    4.6587,    4.5230,    4.9057,    5.3822,    5.9406,  999.0000,    6.9429,    7.3869,    4.9244,    5.2505,    7.2569,    8.1925,    7.7327,    9.8883,    9.1893,    9.6024,  999.0000,  999.0000,  999.0000,  999.0000,  999.0000,  999.0000,  999.0000,  999.0000,  999.0000,  999.0000,  999.0000,  999.0000,  999.0000,  999.0000,  999.0000,  999.0000,  999.0000,  999.0000,  999.0000,  999.0000,  999.0000,  999.0000,  999.0000,  999.0000,  999.0000,  999.0000,  999.0000,  999.0000,  999.0000,  999.0000,  999.0000,  999.0000,  999.0000,  999.0000,
 27-OCT-1996 18:12:17.84,    0.4435,    0.9603,    1.3369,    1.6809,    2.0453,    2.3589,    2.7931,    2.7845,    2.7085,  999.0000,  999.0000,  999.0000,  999.0000,    5.2192,    4.6240,  999.0000,    3.5788,    3.8981,  999.0000,    5.3123,    5.5114,  999.0000,    7.4006,    6.3240,    8.3603,    8.1601,    7.6461,    8.0139,    9.6852,    9.1760,    8.7835,   10.6096,   11.8486,   12.3321,   12.6389,   13.2225,  999.0000,  999.0000,   15.4353,   16.3959,   17.6520,   19.6119,   22.1210,   23.7587,   27.0246,   30.1372,   33.1096,   36.3173,   38.1985,   39.4164,   42.1515,   44.1075,   43.6095,  999.0000,  999.0000,  999.0000,  999.0000,   44.1428,   45.2267,  999.0000,  999.0000,  999.0000,   46.6804,   47.1617,   49.9451,
 27-OCT-1996 18:14:57.22,    0.1942,    1.6319,    2.3984,    1.9365,    1.8094,    2.1546,    1.9858,    1.9461,    2.8590,    3.6062,    4.0680,  999.0000,  999.0000,  999.0000,    3.2983,    2.9095,    2.8052,    4.0620,    4.4597,    5.4834,  999.0000,  999.0000,  999.0000,    3.1446,    2.0823,    2.6004,    3.1717,    4.0189,  999.0000,  999.0000,  999.0000,  999.0000,  999.0000,   12.6913,   12.8463,   12.7130,  999.0000,  999.0000,  999.0000,   16.4778,   17.6844,   19.6836,   22.2422,   23.9707,   27.1860,   30.2282,   32.7910,   35.9087,   38.0934,   39.1043,   41.7629,  999.0000,  999.0000,  999.0000,  999.0000,  999.0000,  999.0000,  999.0000,   45.8045,  999.0000,   46.2338,  999.0000,   45.4237,   45.8315,   48.6640,
 27-OCT-1996 18:17:34.31,    0.7097,    1.3441,    1.4958,    1.5725,    1.1813,    1.7652,  999.0000,  999.0000,  999.0000,    3.5935,    4.1435,    4.6342,    4.1148,    4.1396,  999.0000,    4.9115,    4.7553,    5.4106,  999.0000,  999.0000,    6.3885,    5.7125,    6.7008,    5.3334,    7.2213,    8.6373,    6.1685,    9.3771,    9.7552,    9.6431,    9.9166,   10.9185,   11.5388,   12.4605,   12.9913,   13.3915,  999.0000,   13.9381,   15.8682,   16.8097,   17.9151,   20.0251,   22.3195,   24.2718,   27.5255,   30.2925,   32.7756,   35.9612,   38.2652,   39.2359,  999.0000,  999.0000,  999.0000,  999.0000,  999.0000,  999.0000,  999.0000,  999.0000,   46.4044,   46.2698,   46.5058,  999.0000,   44.5155,   45.5566,   48.5183,
 27-OCT-1996 18:20:13.37,    0.9663,  999.0000,  999.0000,  999.0000,  999.0000,  999.0000,    1.1610,    2.0202,    2.7439,    4.0550,    4.3214,    4.7917,    3.6296,    3.4854,  999.0000,    5.3453,    5.0320,  999.0000,    5.4830,    5.9758,    6.8005,  999.0000,    7.4470,    6.7458,    6.0912,    6.8633,    7.7209,    6.9299,   10.1251,    9.9245,    9.8867,   10.8966,   11.5823,   11.8664,   12.5887,   13.3997,  999.0000,  999.0000,   15.6848,   16.7488,   17.8724,   19.6497,   21.9224,   24.3782,   27.8125,   30.6917,   33.4180,   36.3631,   38.1992,   39.1048,  999.0000,  999.0000,  999.0000,  999.0000,  999.0000,  999.0000,   44.3916,   44.2345,   45.7406,   45.7078,   46.0707,   47.5550,   45.8954,  999.0000,   48.8786,
 27-OCT-1996 18:22:50.53,    1.9652,    2.1598,    2.5894,    1.9607,    1.8838,    2.2651,    1.9866,    2.3423,    3.0573,    3.9942,    3.7126,    3.9577,    4.5004,    4.9760,    5.2449,    5.3020,    4.9136,    5.6217,    6.2688,    6.6516,  999.0000,    7.9035,    7.4781,    5.9292,    7.2806,    7.9326,    7.9585,    7.6669,   10.1434,    9.8534,   10.1741,   10.9480,   12.0859,   12.4292,   12.2364,   13.1845,   13.8185,   15.1119,   16.2521,   17.2312,   18.5161,   20.3946,   22.2234,   24.4197,   27.6939,   30.8781,   33.8768,   36.9674,   38.4227,   38.9314,  999.0000,  999.0000,  999.0000,  999.0000,  999.0000,  999.0000,  999.0000,  999.0000,   45.8251,   45.4048,   45.9914,   46.3066,   47.2056,   47.8889,  999.0000,
 27-OCT-1996 18:25:29.62,    0.4365,    0.4831,    1.1007,    1.4942,    1.7072,    2.3091,    2.5555,    2.5393,    2.9169,    3.6909,    3.9688,  999.0000,    4.4331,    4.6016,  999.0000,    4.6328,    4.6131,    5.0203,    6.1180,    6.8087,  999.0000,  999.0000,  999.0000,    6.6659,    6.9150,    8.0778,    7.9345,    8.9257,  999.0000,   10.0766,   10.8185,   11.2003,   12.1566,   12.3359,   12.6787,   13.4735,   14.1229,   14.6661,   16.1167,  999.0000,  999.0000,   20.3134,   22.2936,   24.1114,   27.3943,   30.7993,   33.5170,  999.0000,  999.0000,  999.0000,  999.0000,  999.0000,  999.0000,  999.0000,  999.0000,   45.3900,   46.0595,   46.0078,   45.8283,   46.0359,   46.8160,  999.0000,   47.4543,   47.9714,   48.2504,
 27-OCT-1996 18:28:08.92,    0.8066,  999.0000,    2.3831,    1.9609,    1.8429,    2.4376,    2.8938,    3.1429,    2.9709,    2.8109,    3.7203,    4.5451,    4.4785,    3.8301,    4.6562,    4.9754,    4.6959,    4.8151,    5.3107,  999.0000,  999.0000,  999.0000,  999.0000,    6.4503,    7.2406,    8.3138,    8.1967,    8.5638,   10.5139,   10.2620,   10.7549,   11.5206,   12.5162,   12.9698,   13.1608,   13.7859,   14.2177,   15.2127,   16.3976,   17.0501,   18.7091,   20.4478,   22.1910,   24.1087,   27.4637,   30.7034,   34.0391,   37.6755,   39.4341,  999.0000,  999.0000,  999.0000,  999.0000,  999.0000,  999.0000,  999.0000,  999.0000,  999.0000,  999.0000,  999.0000,  999.0000,  999.0000,  999.0000,  999.0000,  999.0000,
 27-OCT-1996 18:30:48.57,    0.1888,    0.5486,    1.3271,    1.4043,    1.5703,  999.0000,  999.0000,    4.6785,    4.6173,  999.0000,    3.8081,    4.4075,    4.7444,    4.8796,    4.8676,    4.9232,    4.3695,    4.6690,    5.1647,    5.7264,    6.6202,    7.6429,    7.4835,    6.4958,    6.7172,    7.8239,    8.3552,    9.1991,   10.2107,   10.1858,   10.8943,   10.1806,   12.5420,  999.0000,   13.6196,   14.1707,   14.7569,   16.0148,   15.9178,  999.0000,  999.0000,  999.0000,   23.2534,   24.9729,  999.0000,   31.3642,   34.6131,   37.4883,   39.2094,   40.4158,   41.9155,  999.0000,  999.0000,  999.0000,  999.0000,  999.0000,  999.0000,  999.0000,   45.4056,   45.9023,   45.8400,   45.7868,   47.1805,   47.9666,  999.0000,
 27-OCT-1996 18:33:27.60,    0.1111,   -0.0591,    0.6644,    0.9358,    0.6040,    1.8140,    2.6124,    2.9718,    3.2135,  999.0000,    2.7927,    3.5213,    4.7628,    5.6311,    4.8583,    4.8043,    3.9779,    4.3016,    5.0777,    5.7937,    5.7341,    7.1961,  999.0000,    6.6762,    6.7878,  999.0000,    8.2469,    8.3951,   10.6126,   10.2065,   11.2676,   11.9573,   12.9350,   13.2440,   13.3146,   14.1257,   15.2294,   16.0972,   16.7505,  999.0000,  999.0000,   20.3252,   22.1007,   24.7975,  999.0000,  999.0000,  999.0000,  999.0000,  999.0000,  999.0000,  999.0000,  999.0000,   46.6405,   44.8902,   45.2735,   45.0371,   45.0751,   45.0127,   45.4073,  999.0000,   46.5530,   46.1662,   46.6778,   47.9950,   48.9533,
 27-OCT-1996 18:36:04.63,  999.0000,  999.0000,    0.6074,   -0.1622,   -0.1446,    0.8474,  999.0000,    2.5738,    2.4316,    2.2363,    1.9401,    2.7637,    4.2653,    4.5453,    4.5040,    5.0210,    4.6139,    4.7697,    5.4595,    6.0423,    5.9722,    6.0913,    6.5907,    6.2444,    7.5331,    8.1815,    8.6295,    7.6517,  999.0000,   10.4077,   11.4057,   11.7757,   12.8403,   12.6929,  999.0000,  999.0000,  999.0000,  999.0000,  999.0000,  999.0000,  999.0000,  999.0000,  999.0000,  999.0000,  999.0000,  999.0000,  999.0000,  999.0000,  999.0000,  999.0000,  999.0000,  999.0000,  999.0000,  999.0000,  999.0000,  999.0000,  999.0000,  999.0000,  999.0000,  999.0000,  999.0000,  999.0000,   11.0479,  999.0000,   10.3353,
 27-OCT-1996 18:38:41.43,   -0.2633,   -0.0197,  999.0000,  999.0000,    1.9205,    2.5840,    2.8095,  999.0000,    1.4461,    2.1533,    3.0477,    3.7250,    3.9434,  999.0000,    4.4415,    4.7842,    4.5908,  999.0000,    5.2496,    5.8516,    5.8647,    5.1884,    6.1291,    6.4546,    7.2660,    8.0039,    8.4517,    9.3349,   10.5950,   10.1678,   11.1019,   10.9081,   11.5144,  999.0000,    2.0344,    2.0814,    3.0609,  999.0000,  999.0000,  999.0000,  999.0000,   21.2333,   22.8666,   25.5752,   29.3670,   32.6194,   35.9752,   38.2277,   38.9530,   40.7067,   42.6945,  999.0000,   45.5937,   44.1098,   45.3492,   44.6712,   44.9132,   45.0499,   44.2033,   44.6174,   45.7095,   46.4985,  999.0000,  999.0000,   35.3700,
 27-OCT-1996 18:41:18.71,  999.0000,  999.0000,  999.0000,    1.4107,    1.8030,    1.9381,    2.2957,    2.2734,    2.1959,    2.4925,    2.7794,    3.2969,    3.7353,    4.2128,    4.5391,    4.8277,    4.7591,    5.0175,    5.4974,    5.9465,    5.8729,    6.5250,    6.4766,    6.0842,    6.6010,    8.0291,    8.2697,    8.4854,   10.4480,    9.7493,    9.5806,   11.1354,   11.5459,   12.2479,    7.9038,  999.0000,   10.2573,   15.1769,   16.8124,   17.4101,   18.7795,   21.0736,   22.7879,   25.8422,   29.5759,  999.0000,  999.0000,   38.1539,   38.8645,   40.5030,   42.8723,  999.0000,  999.0000,  999.0000,  999.0000,  999.0000,  999.0000,  999.0000,  999.0000,  999.0000,   44.9595,   46.1239,   41.2770,   47.9268,   50.4201,
 27-OCT-1996 18:43:57.63,   -0.8458,   -0.4031,  999.0000,  999.0000,    1.2639,    1.3434,  999.0000,  999.0000,    1.6731,    1.7503,    2.6827,    3.4847,    4.1224,    4.6717,    4.7943,    5.0931,    4.8257,  999.0000,    6.1877,    6.2913,    6.2233,    6.3641,  999.0000,    6.5110,    6.1218,    7.8988,    8.4582,    9.0019,   10.5499,    9.9656,   10.6176,   11.4348,   12.0819,   12.1568,  999.0000,  999.0000,  999.0000,  999.0000,  999.0000,  999.0000,  999.0000,   20.9718,   22.7898,   26.0510,   29.4086,   32.4342,   36.2747,   38.1300,   38.3932,   40.5516,   43.0486,   45.2314,   44.6804,   43.1840,   43.6678,   44.7476,   45.4635,   44.1999,  999.0000,   44.0707,   44.0437,   45.6206,  999.0000,   48.8900,   50.2609,
 27-OCT-1996 18:46:36.55,    0.0857,    0.0474,  999.0000,    1.0699,    1.9886,    2.1573,    2.4628,    2.5602,    2.8049,    3.2714,    3.7696,    4.0796,    4.6199,  999.0000,  999.0000,    6.3217,    5.4007,  999.0000,  999.0000,  999.0000,    5.5495,    5.0848,    5.8764,    6.0992,    7.0862,    8.1008,    8.6275,    9.4952,   10.2200,   10.2376,   10.7652,   11.6030,   11.8226,   12.0409,   12.4276,   11.5226,   14.2284,   15.0718,   16.4556,   17.1912,   19.1040,   21.0066,   22.7477,  999.0000,  999.0000,  999.0000,   36.3282,   37.9507,   38.3662,   40.6635,   42.9507,   45.2681,   45.4734,   44.7758,   44.5385,   45.0398,   45.9617,   46.3417,   45.7163,   45.5450,  999.0000,   46.4585,   47.6050,   49.3076,   51.0590,
 27-OCT-1996 18:49:13.57,    0.1918,    0.1084,  999.0000,    0.8003,    1.6925,    2.2045,    2.2002,    2.0836,    2.8383,    3.7749,    3.9418,    4.1253,    4.5912,    6.1860,    8.0887,    7.7746,    5.6723,    5.3280,    6.4556,    6.2669,    4.2967,    3.6755,    5.6316,    7.2643,    7.8607,    8.6814,    8.6705,   10.0035,   10.7479,   10.2699,   10.7332,   11.2675,   11.8776,   12.0054,   12.7995,   12.9531,   14.1326,  999.0000,  999.0000,  999.0000,   19.2591,   20.9194,   22.7396,   25.7736,   29.0056,   32.5249,   36.1641,   37.8623,  999.0000,  999.0000,  999.0000,  999.0000,  999.0000,   45.3099,   44.2739,   44.8395,  999.0000,  999.0000,   46.0984,   45.8761,   45.0081,  999.0000,   47.6653,   48.5791,   49.9238,
 27-OCT-1996 18:51:52.83,  999.0000,  999.0000,    0.3709,    1.5332,    2.2189,    2.2047,    2.2587,    2.6895,    4.1461,    4.6654,    3.8646,    3.7607,    4.8607,    5.5319,  999.0000,  999.0000,  999.0000,    5.2713,    6.6032,    5.8655,  999.0000,    5.5995,    6.7159,    7.7380,    7.9593,    8.7097,    9.2937,   10.8625,   11.0054,   10.6053,   11.1086,   12.2258,   12.7123,   13.0093,   13.6342,   13.7998,   14.5352,   16.3388,   17.3614,   17.8484,   19.3646,   20.8736,   22.4380,   25.3052,   28.6125,  999.0000,  999.0000,   37.5193,   38.0971,   40.6737,   43.8715,   45.5093,   46.4461,  999.0000,  999.0000,  999.0000,  999.0000,  999.0000,  999.0000,   46.5451,   45.4465,   46.7282,  999.0000,   48.4393,   49.0088,
 27-OCT-1996 18:54:29.72,   -0.4565,  999.0000,    0.8136,    1.2997,    3.4815,    2.9865,    2.8182,    3.2499,    4.2925,    4.9309,    4.4423,    4.0171,    5.0732,    5.7482,    6.1595,    6.3071,    6.3649,  999.0000,    6.6981,    7.2061,    6.6121,    6.7980,    7.3085,    6.4651,    7.9231,    8.2187,    9.7948,   11.1719,   11.0714,   11.0592,   10.9314,   11.9676,  999.0000,  999.0000,  999.0000,  999.0000,   14.7842,   16.6605,   17.9025,   17.6572,   19.4144,   20.2745,   21.8915,   25.2356,   28.6829,   32.5649,   36.4905,   38.2230,  999.0000,  999.0000,  999.0000,  999.0000,  999.0000,   43.7356,   43.4191,   44.6259,   45.9764,   46.0995,   46.4623,  999.0000,   45.0003,   45.7261,  999.0000,   48.4462,  999.0000,
 27-OCT-1996 18:57:07.35,   -0.5639,   -0.1360,    0.3375,   -0.1206,  999.0000,    0.5808,    1.5242,    2.6404,    2.7752,    3.8711,    4.0935,    4.1675,    4.7669,    5.3626,    5.9124,    6.5121,    6.3796,    5.9166,    6.2693,    6.7166,    6.5162,    6.1926,    6.8884,    6.5501,    7.7770,    8.1705,    9.4383,   10.9304,   11.4328,   11.6721,   11.7625,   12.1780,   12.7302,   12.7524,  999.0000,  999.0000,  999.0000,   16.4562,   18.0631,   18.3840,   19.5726,   20.5362,   21.9329,   25.1472,  999.0000,  999.0000,  999.0000,   38.1516,   38.3105,   40.5295,   43.7297,  999.0000,  999.0000,  999.0000,  999.0000,  999.0000,  999.0000,  999.0000,  999.0000,   45.2184,   44.9350,   46.4557,   47.2621,   48.4093,   49.5051,
 27-OCT-1996 18:59:46.23,   -2.2469,   -2.4463,  999.0000,  999.0000,  999.0000,  999.0000,  999.0000,  999.0000,    3.6069,    3.7741,    3.9724,    4.4085,  999.0000,    5.5934,    5.7728,    6.0400,    5.8896,    6.0415,    6.1282,    6.1250,    6.7094,    7.7568,    7.7140,    7.8622,    8.0754,    8.7561,    9.4298,   10.9782,   11.4908,   12.0034,   12.2821,   11.1521,   12.6790,   12.3106,   13.2771,   13.2031,   14.6630,   16.3768,   18.0340,   18.4725,   19.5536,   20.0696,   21.5945,   24.8840,   28.6142,   32.1007,   35.9927,   37.4828,   37.9813,   40.7183,   44.1927,   46.1102,   45.8319,   45.4212,   44.5845,   45.0100,   45.6405,   45.2267,  999.0000,  999.0000,  999.0000,   47.0803,   48.1800,   48.7835,   49.4309,
 27-OCT-1996 19:02:23.25,   -2.6128,   -3.0886,  999.0000,  999.0000,   -0.1392,    0.6539,  999.0000,    3.4036,    4.9078,    5.0364,    5.1199,    5.3173,    5.4555,  999.0000,    6.5480,    6.6507,    6.3005,    6.5465,    6.5212,    6.8207,    6.9755,  999.0000,    7.6101,    8.1399,    8.8085,    9.3060,    9.9713,   11.5134,   12.0659,   12.7746,   13.1162,   12.9558,   13.3223,  999.0000,  999.0000,   13.8485,   14.8408,   16.5647,   17.8355,   18.6525,  999.0000,   20.2839,   21.9568,   25.0630,   28.9406,   32.1281,   35.5973,   37.1761,   37.5771,   40.2784,   43.9345,   45.4724,   45.6864,   45.9347,   45.0587,   44.8707,   44.6130,   44.3363,  999.0000,   44.6979,   45.2816,   47.1856,   48.5314,   48.5068,   48.4436,
 27-OCT-1996 19:05:00.17,  999.0000,  999.0000,  999.0000,  999.0000,  999.0000,    2.2157,    3.0322,  999.0000,    4.7923,    4.8454,    4.8228,    5.4348,  999.0000,    6.5879,    6.3416,    6.4005,    6.1370,    6.2879,    6.5787,    6.9179,    7.7360,    8.0087,    8.2021,    8.0868,    8.2090,    9.0966,    9.6740,   11.0281,   12.0689,   12.9147,   13.3721,   12.9332,   13.2176,  999.0000,   13.1979,   14.1192,  999.0000,   17.0214,   18.2968,   19.0148,   20.2532,   20.6877,   22.0459,   25.3498,   28.8401,   32.2406,   35.3937,   36.8792,   37.1780,   39.7291,   43.4893,   45.5380,   46.6786,   46.9797,   45.1023,   44.3162,   44.2751,   44.4919,   46.1008,  999.0000,  999.0000,   47.5793,   47.2268,   47.9054,   48.8181,
 27-OCT-1996 19:07:37.32,  999.0000,  999.0000,   -0.6465,    0.0284,    1.4831,    2.2999,    3.1434,    3.0995,    3.7933,    4.1251,    4.0582,    4.1625,    4.9409,    5.2039,    5.5692,  999.0000,    5.4358,    5.5591,    6.2294,    6.7933,    6.8802,    7.2827,    7.8449,    7.4661,    8.2071,    7.9917,    8.7659,   10.1069,   11.0321,   11.9284,   12.5448,   12.0530,   12.4997,  999.0000,  999.0000,   13.5064,   14.6890,   16.0891,   18.1994,   18.9777,  999.0000,  999.0000,  999.0000,  999.0000,  999.0000,   32.3040,   35.1222,   36.1967,   37.1340,   40.1546,   43.6563,   45.3461,   45.7675,   46.4748,   46.4326,  999.0000,  999.0000,   44.2507,   45.5843,   46.4854,   45.7521,  999.0000,  999.0000,  999.0000,   49.0051,
 27-OCT-1996 19:10:14.33,   -4.0896,  999.0000,  999.0000,  999.0000,    0.9761,    2.1291,    2.3932,    2.7602,    3.7954,  999.0000,    3.7988,    3.4798,    4.1470,    4.5246,    5.0728,    5.2439,    4.5290,    4.5787,    5.2880,    6.6020,    6.6119,    6.3810,    6.7432,    6.4198,    6.7202,    7.3256,    8.0664,    9.0470,    9.9983,   10.9955,   11.8944,   11.4359,   11.6714,   11.3047,   12.5502,   13.2099,   14.6963,   16.6481,   17.7556,   18.7728,   19.7752,   20.2848,   22.0704,   25.7887,   29.4709,   32.9028,   35.4356,   36.3073,   37.5744,   41.0725,   44.7828,   46.0839,   46.1169,   46.6263,   45.8616,   44.3193,   45.0194,   45.5403,   46.1333,   45.2782,   45.5691,  999.0000,  999.0000,  999.0000,  999.0000,
 27-OCT-1996 19:12:53.66,   -2.6295,   -2.7719,   -2.9456,   -2.3293,  999.0000,  999.0000,  999.0000,    2.7249,    3.8132,    3.8851,    3.5994,    3.7273,    4.1844,    4.8127,    5.0803,    4.9727,    4.5068,    4.9210,    5.3791,  999.0000,  999.0000,  999.0000,    6.1254,    5.9417,    6.7867,    7.4182,    8.1150,    9.0547,    9.9878,   10.7479,   11.8691,   11.6609,   11.1331,  999.0000,  999.0000,  999.0000,   14.2232,   16.8374,   17.6629,   18.6767,   20.0113,   20.9323,  999.0000,  999.0000,   30.2572,  999.0000,  999.0000,  999.0000,   40.0848,   42.0327,  999.0000,   46.8658,   47.1410,   46.9104,   46.1845,   45.1475,   45.3331,   46.2427,   47.1859,   45.4542,   45.8020,   48.2565,   49.2677,  999.0000,  999.0000,
 27-OCT-1996 19:15:32.52,   -3.0073,  999.0000,  999.0000,  999.0000,  999.0000,    1.7649,    2.2659,    3.1024,    3.3168,  999.0000,    4.0904,    4.3517,  999.0000,    5.3751,    5.4548,    5.4801,    5.1896,    5.3180,    5.7915,  999.0000,  999.0000,  999.0000,    6.8522,    6.5025,    7.6686,    7.9421,    8.5684,    9.6174,   10.7545,   11.4378,   12.2703,   12.2317,   12.0999,   12.5347,   12.7116,   12.9045,   14.7892,   16.8541,   17.7841,  999.0000,   20.1219,   21.3192,   22.3945,   26.2291,   30.2736,  999.0000,  999.0000,  999.0000,  999.0000,  999.0000,  999.0000,  999.0000,  999.0000,  999.0000,  999.0000,  999.0000,  999.0000,  999.0000,  999.0000,  999.0000,  999.0000,  999.0000,  999.0000,  999.0000,  999.0000,
 27-OCT-1996 19:18:09.48,   -4.2231,  999.0000,  999.0000,  999.0000,  999.0000,  999.0000,    2.5315,    3.6151,    4.1477,    4.5606,    3.8231,    4.6260,  999.0000,    6.0071,    6.3453,    6.2756,    5.7771,    5.7384,    6.9524,    7.5196,    6.6617,    7.8920,    8.3419,    7.8691,    8.4538,    8.8538,    9.1879,   10.1688,   11.5592,   12.0578,   13.1035,   13.1574,   12.7035,   12.6921,   12.5533,   13.6163,   15.5379,   17.6164,   17.9477,   19.2443,   20.0594,   20.7001,   22.5906,   26.0232,   30.1510,   33.4453,   35.9679,   37.5520,   38.9807,   41.6975,   44.5845,   47.4434,   48.6229,   47.2980,   45.7646,   45.8587,   45.8484,   46.5108,   46.6634,  999.0000,   47.3059,   48.5402,  999.0000,  999.0000,  999.0000,
 27-OCT-1996 19:20:46.42,   -2.7264,   -2.8654,   -2.8453,  999.0000,    1.1234,    1.8541,    1.9084,    2.6296,    3.5074,    4.1053,    3.8112,    4.0681,    4.8957,    5.4819,    6.1267,    6.3276,    6.3152,    6.0856,    7.0847,    7.8837,    7.2496,    8.0518,    8.1845,    8.0202,    8.6527,    8.7190,    9.1049,   10.5822,   11.7043,   12.7205,   13.2221,   13.5800,   13.2632,   13.4851,   13.1781,   14.2490,   16.3781,   17.9309,   18.6659,   19.5240,   20.3996,   20.6641,   22.0364,   25.8054,   30.0600,   33.2023,   35.6501,   37.3557,   38.9482,   41.9192,   44.4596,   46.6663,   47.7879,   47.1998,   46.3916,   46.1579,   45.4657,   45.9202,   45.7350,  999.0000,   48.2795,   49.6179,  999.0000,   48.6377,   47.6096,
 27-OCT-1996 19:23:25.41,   -2.6227,  999.0000,  999.0000,  999.0000,    0.9534,    1.8086,    2.2281,    2.3742,    3.6518,  999.0000,    3.4554,    3.4138,  999.0000,    4.9256,    5.5497,    5.8133,    5.9063,    6.1697,    6.6477,  999.0000,  999.0000,  999.0000,    7.9320,    7.6246,    7.3644,    8.6057,    8.8896,   10.1692,   11.0619,   12.1207,   13.0636,   13.2131,   13.0806,   13.2393,   13.5682,   14.7458,   16.9141,   18.3400,   18.8339,   19.5317,   20.6831,   20.8729,   22.6821,   26.4255,   30.6300,   33.6801,   36.0180,   37.1571,   38.9551,   42.2401,   44.6734,   47.0501,   48.2193,   47.0697,   45.6440,   45.7440,   45.4287,   45.3590,   45.6475,   45.8015,   48.3405,   49.6590,  999.0000,  999.0000,  999.0000,
 27-OCT-1996 19:26:02.43,  999.0000,  999.0000,  999.0000,  999.0000,  999.0000,  999.0000,  999.0000,  999.0000,  999.0000,  999.0000,    3.2250,    2.8345,    3.0668,  999.0000,    5.3354,    5.4539,    5.4475,  999.0000,    6.2335,    6.9641,    7.3927,    7.5793,    8.0502,    7.5752,    7.7466,    8.4522,    8.6809,    9.7996,   10.5993,    9.4183,  999.0000,   12.8386,   12.7760,   12.7640,   13.3397,   15.1024,   17.2794,   18.3664,   18.2343,   19.7665,   20.3173,   20.2705,   22.1004,   25.6949,   29.5326,   32.9146,   35.6348,   37.0422,   38.5389,   41.5291,   44.0598,   46.6346,   46.8682,   45.5794,   45.1850,   43.8603,   43.7536,   45.1386,   45.7451,   46.0467,  999.0000,   48.0409,   49.1858,   48.9680,  999.0000,
 27-OCT-1996 19:28:39.48,   -2.0675,  999.0000,  999.0000,  999.0000,  999.0000,    1.2880,    1.5219,    2.6293,    4.2069,    5.0999,    4.8589,    4.4161,  999.0000,  999.0000,  999.0000,    4.9124,    5.3562,    5.6376,    6.2666,    6.8049,    7.1950,    7.8971,    7.9700,    7.5351,    8.1867,    8.5791,    8.4123,    9.5998,   10.7494,    9.5985,   10.7082,   12.5381,   12.5899,   12.7355,   13.2682,   14.7649,   16.7875,   17.8644,   18.3531,   19.6770,   19.9159,   19.5468,  999.0000,  999.0000,   29.5954,   32.4893,   35.3844,   37.2219,   38.4035,   41.6905,   44.8201,   46.5217,   46.3306,   46.4969,   46.3465,  999.0000,  999.0000,  999.0000,  999.0000,  999.0000,  999.0000,  999.0000,  999.0000,  999.0000,   48.4268,
 27-OCT-1996 19:31:16.62,   -2.2037,   -1.5279,   -1.1670,   -1.1219,   -0.1611,    1.5166,    1.4556,    3.1963,    4.5594,    5.0554,    4.7124,    3.9156,    3.9428,    4.3967,    4.7500,    5.2628,    5.7991,    5.7110,    6.7873,    7.0888,  999.0000,  999.0000,  999.0000,    7.8051,    8.1188,    8.4506,    8.0742,    9.3961,   10.8800,   11.2909,   11.7017,   12.5364,   12.4529,   12.3086,   13.2035,   14.8027,   17.0422,   18.3364,   19.0734,   20.0263,   20.1463,   20.1118,   22.5232,   26.5628,   30.1995,   32.9189,   35.6888,   37.3186,   39.7134,   41.7895,   44.9380,  999.0000,  999.0000,  999.0000,  999.0000,  999.0000,  999.0000,  999.0000,  999.0000,  999.0000,  999.0000,  999.0000,  999.0000,  999.0000,  999.0000,
 27-OCT-1996 19:33:53.46,   -2.0278,   -1.8779,   -1.6415,   -1.2198,    0.5439,    2.1200,    2.2521,    2.6811,    3.6809,    4.4193,    4.1556,    3.5359,    3.9469,    4.2713,  999.0000,  999.0000,  999.0000,    4.7646,    6.0292,    6.8316,    7.6794,    8.2788,    7.8456,    7.9377,    8.3091,    8.3804,    8.0812,    9.2336,   10.6483,   11.3291,   11.5100,   12.4241,   12.4944,   12.7925,   12.9477,   14.6092,   16.6745,   18.2478,   18.6891,  999.0000,  999.0000,  999.0000,  999.0000,   26.5861,   30.3619,  999.0000,  999.0000,  999.0000,  999.0000,   41.4492,  999.0000,  999.0000,  999.0000,  999.0000,  999.0000,  999.0000,   44.6750,   45.5264,   44.7960,   45.1363,   46.8032,  999.0000,  999.0000,   49.5119,   48.6540,
 27-OCT-1996 19:36:32.36,   -1.7519,  999.0000,  999.0000,   -2.0859,   -1.3240,  999.0000,  999.0000,    2.1991,    2.5149,    3.3821,    3.9060,    3.8497,    4.7471,    4.9805,  999.0000,    5.6198,    5.4247,    5.6969,    6.8489,    6.5282,    6.6125,    7.2380,    7.9762,    7.7612,    8.3983,    8.6503,    8.5583,    9.4507,   10.8198,   11.6130,   12.0273,   12.8802,   12.8949,   13.1577,   11.7957,   13.4921,  999.0000,  999.0000,  999.0000,   19.9204,   20.1298,   20.4020,   23.1177,   26.6402,   30.3318,   32.8764,   35.5466,   36.9230,   38.0983,   40.9004,   44.0563,  999.0000,   46.1898,   45.1283,   46.4539,   45.0239,   45.4780,   45.8539,   44.3364,   45.0249,  999.0000,   49.9170,  999.0000,   49.9259,  999.0000,
 27-OCT-1996 19:39:09.18,  999.0000,  999.0000,  999.0000,   -2.3152,   -1.2883,    0.0787,  999.0000,    1.4631,    2.3767,    3.0463,  999.0000,    4.0635,    4.4062,    4.8884,    4.9830,    5.6791,    5.9240,  999.0000,    7.1615,    6.5274,  999.0000,    8.1383,    7.6179,    7.2188,    8.7537,    8.8690,    8.5988,    9.1957,   10.6384,   11.9877,   12.3139,   12.3128,  999.0000,  999.0000,  999.0000,  999.0000,   17.3649,   18.7250,   19.0983,   19.9008,  999.0000,  999.0000,   23.4367,   27.2446,   30.9644,   33.8150,  999.0000,  999.0000,  999.0000,  999.0000,   43.4794,  999.0000,   46.0706,  999.0000,  999.0000,   44.1781,   44.8491,   45.3619,   45.5526,   46.0909,   47.0127,  999.0000,   49.3513,   49.3193,   47.8944,
 27-OCT-1996 19:41:47.02,   -1.6379,   -1.8174,   -1.6760,   -1.5093,   -0.3177,    1.1674,    1.3547,    2.4028,    3.4654,    4.5145,    5.0244,    4.6005,    4.9753,    5.3281,    5.5414,    6.0571,    6.1470,    6.3658,    6.9457,    7.1997,  999.0000,  999.0000,    8.0951,    6.8551,    8.7859,    8.7114,    8.0226,    9.1824,   10.9078,   12.3486,   12.3863,    9.5054,  999.0000,  999.0000,  999.0000,   14.5855,   17.7546,   19.3249,   19.8863,   20.2942,   19.7993,   20.7731,   23.7402,   27.6282,   31.3057,   34.3077,   36.4174,   37.0293,   38.5869,   40.9508,   43.8627,  999.0000,   45.5993,   43.9407,   44.4491,   43.8430,   44.0724,  999.0000,  999.0000,   47.0591,  999.0000,   50.4510,   50.7466,  999.0000,   48.4321,
 27-OCT-1996 19:44:25.93,   -0.4462,   -0.6695,   -0.8686,   -0.6917,  999.0000,    1.4609,    2.0092,    2.8155,  999.0000,    4.3644,    4.6168,    4.0906,    4.7434,    5.0631,    5.4409,    5.6085,    5.7519,    6.0541,    7.1335,    7.5098,  999.0000,  999.0000,  999.0000,    7.4034,    8.6129,    8.4111,    8.4333,    9.2705,    8.9503,   12.3592,   12.7437,   13.5449,   13.9387,  999.0000,  999.0000,   15.7991,   17.8414,   19.6034,   20.5901,   20.6963,   20.1378,   21.1249,   24.4230,   28.3120,   31.7869,   34.5749,   36.3046,   37.0856,   38.8960,   41.0326,   44.0900,  999.0000,  999.0000,  999.0000,  999.0000,  999.0000,  999.0000,   45.1157,   46.8570,   47.8069,   47.2866,   49.4423,   51.1004,  999.0000,  999.0000,
 27-OCT-1996 19:47:03.04,  999.0000,  999.0000,   -2.6246,   -2.1522,   -1.4977,  999.0000,    1.7301,    2.1684,    2.9141,    4.4562,    4.5987,    3.7642,  999.0000,    5.2928,    5.1875,    5.2634,    5.3348,    5.8182,    7.3166,    7.3437,    8.0637,    8.6150,    8.4658,    8.8810,    8.7441,    8.5581,    8.7610,    9.4244,   10.5266,   11.7967,   12.7309,   13.8456,   13.8135,   13.5335,   13.7710,   15.7069,  999.0000,  999.0000,   20.6155,   20.6169,   21.0713,  999.0000,  999.0000,   28.4470,  999.0000,  999.0000,  999.0000,  999.0000,   38.6847,   41.5337,   44.0819,   45.4468,   45.4603,  999.0000,  999.0000,  999.0000,  999.0000,   45.1502,   46.4694,  999.0000,  999.0000,   49.1705,   50.3448,  999.0000,   49.9646,
 27-OCT-1996 19:49:39.94,   -2.0400,   -2.4804,   -2.2124,   -2.1280,   -0.7266,    1.2814,    1.3188,    1.9793,    3.0776,    3.6310,    4.1902,    4.0603,    5.1360,  999.0000,    5.4672,    5.6783,    5.8550,    6.2707,    7.2359,    6.9643,  999.0000,  999.0000,    7.7808,    6.4324,    7.7422,    8.9035,    8.7353,    9.5217,   10.1660,   11.9610,   12.7247,   13.7559,   14.0702,   13.4147,   13.6823,   15.7465,   17.8508,   19.3799,   20.6327,   20.6461,   20.7787,   20.8915,   23.6392,   27.7395,   31.3790,   35.2866,   36.6138,   36.2381,   38.4581,   41.4044,   44.0627,  999.0000,  999.0000,  999.0000,  999.0000,   44.8934,   45.7286,   45.8136,  999.0000,   47.8296,   46.4397,   47.9999,   48.7338,   50.0627,   50.7527,
 27-OCT-1996 19:52:19.82,   -1.3531,   -1.3989,   -1.0785,  999.0000,  999.0000,  999.0000,    1.2937,    2.5578,    3.7638,    4.3687,    4.3820,    4.0305,    4.9957,    5.3035,    5.3412,    5.7736,    5.8667,    5.7507,    6.6254,    6.7999,    7.1834,    7.7495,    7.1841,    6.9288,    7.6722,    8.3778,    8.5968,    9.5270,   10.2627,   11.8597,   12.8003,   13.5947,   14.1220,   13.8097,   13.8660,   15.9757,   18.0319,   19.5009,   20.9298,   21.2068,   21.0935,   21.2862,   24.2049,   27.9689,   31.6434,   35.6089,   36.9013,   36.2988,   38.5206,   41.1092,   43.8425,   46.1079,   45.6992,  999.0000,  999.0000,   44.1610,   44.3631,   44.7973,   46.6091,  999.0000,   46.4395,  999.0000,   49.0990,   50.8815,  999.0000,
 27-OCT-1996 19:54:58.80,   -0.5614,   -0.5532,   -0.4503,   -0.3957,   -0.3328,  999.0000,    1.4822,    2.4156,    3.2993,    4.1139,    3.9191,    4.1460,    4.8382,  999.0000,    5.2648,    5.3170,    5.4720,    5.3925,    5.7560,    6.1897,    6.8631,    7.6644,    7.1433,    6.5570,    7.5316,    8.4920,    8.2528,    8.6844,    9.6302,   11.4132,   12.6302,   13.3379,   13.9995,   14.2316,   13.9653,   15.7780,   18.0120,   19.6536,   20.9441,   21.2912,   21.1085,   21.5683,   24.1498,  999.0000,  999.0000,   35.2341,   36.4800,   36.4867,   38.5411,   41.0214,  999.0000,  999.0000,  999.0000,  999.0000,  999.0000,  999.0000,   45.2710,   45.4676,   47.5453,   49.4728,   49.2923,  999.0000,   50.4979,   50.2087,  999.0000,
 27-OCT-1996 19:57:35.74,   -0.3700,  999.0000,  999.0000,  999.0000,  999.0000,    0.2154,    1.1093,    2.0377,    2.8076,    3.7133,    4.0691,    4.3192,    4.5656,  999.0000,    4.9364,    4.9368,    5.3652,    5.3910,  999.0000,    6.4595,    7.0488,    7.2870,    7.4308,    6.8058,    7.4688,    8.4396,    8.4280,    9.4329,    9.9651,   11.3425,   12.3430,   13.2820,   14.0599,   13.8711,   13.5444,   15.8451,   18.0501,   19.6284,   20.8963,   21.6521,   21.4109,   21.8793,   24.4713,   28.4538,   32.2202,   35.5107,   36.1483,   35.8632,  999.0000,  999.0000,   44.2652,   46.0425,  999.0000,  999.0000,  999.0000,  999.0000,  999.0000,  999.0000,  999.0000,   48.7231,   48.7510,   48.3475,   50.8844,   50.6491,   51.8544,
 27-OCT-1996 20:00:12.90,   -0.9465,  999.0000,   -0.3750,   -0.3500,   -0.6046,  999.0000,    1.8955,    2.5987,    2.5968,    3.3000,    4.4109,    4.3441,    4.0472,    4.1367,    4.2169,    4.8017,    5.0399,    4.9385,  999.0000,    5.9844,    6.5147,    7.0725,    7.0000,    6.6228,    7.1600,    7.9546,    8.2371,    9.2188,    9.8472,   10.8984,   12.0794,   13.0242,   13.9185,   14.1691,   13.5352,   15.7965,   17.9065,   19.2593,   20.8746,   21.8353,   21.7674,   22.2326,   24.5916,   28.5274,   32.0295,   35.2757,   36.0782,   35.7588,   38.1546,   41.1896,  999.0000,  999.0000,  999.0000,  999.0000,  999.0000,   45.3992,   45.6174,   47.1852,  999.0000,  999.0000,  999.0000,   48.9729,   50.5982,   51.1671,   51.6678,
 27-OCT-1996 20:02:50.03,   -0.7094,   -0.1383,   -0.1585,   -0.1811,   -0.7264,   -0.8761,    1.1460,    1.7200,    2.2818,    3.2650,    4.1736,    4.7961,    4.9546,    4.5747,  999.0000,    4.5696,    5.0828,    4.9615,    4.9254,    5.7324,    5.5527,    6.2322,    6.5200,    6.4945,    7.0586,    7.9422,    7.8975,    8.5266,    9.0827,   10.5100,   12.0469,   12.4047,   13.8540,   14.0920,   13.4307,   15.5506,   17.7811,   19.4064,   21.0062,   21.5721,   21.3674,   22.2399,   24.9751,   28.8389,   32.3145,   34.9776,   36.1642,   36.1733,   37.5907,   40.9209,  999.0000,  999.0000,  999.0000,   42.9507,   45.3499,   45.5369,  999.0000,  999.0000,  999.0000,  999.0000,  999.0000,   48.7473,   50.2385,   50.3908,   50.8945,
 27-OCT-1996 20:05:27.08,   -1.0000,  999.0000,  999.0000,  999.0000,   -1.5140,   -1.4783,  999.0000,  999.0000,  999.0000,  999.0000,    3.4648,    3.7734,    4.1747,    4.6504,    4.7250,    4.3254,    4.7287,    4.7318,    5.2045,    6.1398,    5.5985,    6.3728,    6.9599,    6.5718,    6.5342,    7.9823,    7.3897,    7.8442,    9.1808,   10.5775,   12.2457,   13.1861,   14.1088,   14.3932,   13.4670,   15.4393,   17.6785,   19.1849,   20.7898,   21.8642,   21.9655,  999.0000,   24.9542,   28.8361,   32.1770,   35.0804,   36.5123,   36.4367,   37.7657,  999.0000,  999.0000,  999.0000,  999.0000,   44.0460,   44.9663,  999.0000,  999.0000,  999.0000,  999.0000,  999.0000,  999.0000,   48.4633,   49.8157,  999.0000,   51.3659,
 27-OCT-1996 20:08:06.12,   -0.3750,  999.0000,  999.0000,  999.0000,  999.0000,  999.0000,  999.0000,    1.8694,    2.8682,    3.9735,  999.0000,    4.4754,    4.7633,  999.0000,    5.0408,    5.8026,    5.4137,    5.3274,    5.9491,    6.6998,    6.3077,  999.0000,  999.0000,    7.0022,    6.5584,    8.2267,    7.4246,    8.6548,    9.6041,   10.7001,   12.4093,   13.1980,   14.3808,   14.8274,   13.7861,   15.8433,   17.8993,   19.0860,   21.1141,   22.2409,   22.2606,   23.0372,   25.1784,   29.0341,   32.0899,   35.1500,   36.6412,   36.5408,   38.3705,   41.8398,   45.2261,  999.0000,  999.0000,  999.0000,   45.2635,   46.1929,  999.0000,  999.0000,  999.0000,  999.0000,  999.0000,  999.0000,   49.5133,   49.8280,   50.7330,
 27-OCT-1996 20:10:42.94,   -0.3586,   -0.8738,   -1.1585,   -1.4731,  999.0000,  999.0000,  999.0000,    2.8861,    3.4251,    4.4691,  999.0000,    4.8991,    5.0988,    5.0310,    5.2542,    5.4914,    5.3755,    5.4164,    5.9042,    6.8162,    7.0510,    6.8543,    7.1467,    6.7682,    6.3771,    8.0438,    7.7103,    8.7522,  999.0000,  999.0000,   13.2925,   13.7126,   14.9699,   14.2310,   13.7268,   16.0299,   17.7679,   18.8728,   21.0663,   22.5123,   22.4408,   22.8232,   25.4600,   29.0454,   32.1520,   34.7854,   36.2870,   36.2294,   37.7634,   41.4170,  999.0000,   45.3870,  999.0000,  999.0000,  999.0000,  999.0000,  999.0000,  999.0000,   48.2831,   48.8458,  999.0000,   47.6599,   48.7293,   49.8982,   51.9297,
 27-OCT-1996 20:13:20.06,   -1.4168,   -0.9048,  999.0000,   -2.4814,   -2.7185,  999.0000,    2.6596,    3.2253,    3.2761,    4.3607,    4.9943,    5.0573,    5.1904,    4.9940,    5.1867,    5.3843,    5.4085,    5.0122,    5.0612,    6.8834,    7.4037,    6.8234,    6.6920,    6.3680,    7.5137,    7.9133,    7.7369,    7.7006,    9.9008,   11.1299,   12.5197,   12.5937,   13.8839,   14.3875,   14.0652,   16.0763,   17.6824,   18.9955,   20.6560,   22.0758,   22.2523,   22.2255,   24.8014,   28.9033,   31.9544,   34.6660,   36.1120,   35.5081,   36.7560,   40.7078,  999.0000,  999.0000,  999.0000,  999.0000,   43.8371,   44.7268,   46.1083,   45.9170,   47.3985,   47.7631,   48.7313,   47.9132,  999.0000,  999.0000,  999.0000,
 27-OCT-1996 20:15:58.90,   -3.4037,  999.0000,  999.0000,  999.0000,  999.0000,  999.0000,  999.0000,  999.0000,  999.0000,  999.0000,  999.0000,    4.6336,    4.6017,    4.9948,  999.0000,  999.0000,  999.0000,  999.0000,  999.0000,  999.0000,  999.0000,    6.6221,    6.6095,    6.7068,    6.6056,    7.8117,    7.2975,  999.0000,    9.6434,   10.5249,   10.3266,  999.0000,  999.0000,   14.5342,   14.1355,   15.6418,   17.3116,   19.0083,   20.6517,   21.9924,   22.1591,   22.0528,   24.8173,   28.4738,   31.6710,   34.7919,   36.1676,   35.1048,   36.2946,   40.0414,   43.3319,   43.9960,   43.2780,   43.4457,   43.2385,   44.6577,  999.0000,  999.0000,   47.3902,  999.0000,  999.0000,  999.0000,  999.0000,  999.0000,  999.0000,
 27-OCT-1996 20:18:37.76,   -2.9608,   -2.7934,   -2.7002,  999.0000,  999.0000,  999.0000,  999.0000,    2.4067,    3.2585,    3.9978,    4.2878,    4.6768,    5.0724,  999.0000,    5.2063,    5.3003,  999.0000,  999.0000,  999.0000,    5.9932,    7.1487,    6.9605,    6.6472,    6.2516,    5.7611,    7.2584,    6.8639,    6.9096,    9.4320,   10.2998,    9.7311,  999.0000,  999.0000,   14.1615,   13.5781,   15.1393,   17.0339,   18.7775,   20.1865,   22.2764,   21.8661,   22.8648,   24.7779,   28.4723,   31.6040,   34.5327,   36.0125,   34.8917,   36.3853,   39.9607,   43.2882,   44.0240,   43.2487,   43.6688,   43.9235,   44.6868,   45.8549,   46.2523,   47.5550,   48.2042,  999.0000,  999.0000,  999.0000,   49.5873,  999.0000,
 27-OCT-1996 20:21:14.96,   -2.5819,   -3.0140,   -2.7776,  999.0000,   -0.3615,    0.3646,    0.6776,    2.4464,    3.3993,    4.2750,    4.4916,    4.9459,    5.2072,    5.1927,    5.3958,    5.4694,    5.0650,    5.4595,    5.7062,    5.0083,    6.1266,    6.2527,  999.0000,    5.6445,    7.3300,    8.2879,    7.8012,    6.1801,    8.3799,   10.7273,    9.8112,    8.0834,   11.8563,   13.4158,   13.8837,   15.4731,  999.0000,  999.0000,   21.2749,   21.9886,   21.9399,   22.1861,   24.5344,  999.0000,   31.7404,   34.5312,   30.9774,   36.4175,   36.9593,   40.0207,  999.0000,  999.0000,  999.0000,  999.0000,  999.0000,  999.0000,  999.0000,  999.0000,  999.0000,  999.0000,  999.0000,  999.0000,  999.0000,  999.0000,  999.0000,
 27-OCT-1996 20:23:51.74,   -1.0678,  999.0000,  999.0000,  999.0000,  999.0000,  999.0000,  999.0000,  999.0000,  999.0000,  999.0000,    4.6692,    5.0521,    5.3252,    5.0208,    5.2658,    4.9308,    4.5569,    5.2459,    6.1588,    6.8026,    6.6608,    6.3318,    6.2668,    6.1161,    6.9210,    7.8615,    7.5659,    6.8128,    9.1448,   11.1852,   12.1331,   12.2310,   14.3940,   14.3630,   14.1278,   15.5959,   17.6259,   19.2929,   20.8154,   22.1157,   21.7031,   22.9228,   25.1616,   28.8239,   31.7533,   34.4183,   33.9632,   34.8796,   36.4174,   39.6568,   43.1083,   43.7991,   42.6930,   43.8114,   45.1092,   45.5505,   44.5465,   45.2053,   47.6607,   48.5930,  999.0000,   48.2652,   48.7350,   50.9927,  999.0000,
 27-OCT-1996 20:26:28.56,   -3.2846,   -3.0797,   -3.1517,  999.0000,   -0.2974,    1.0992,  999.0000,  999.0000,  999.0000,    4.6295,    4.7452,    4.7594,    5.1595,    4.9544,    4.5348,    4.4829,  999.0000,  999.0000,  999.0000,    6.5537,    7.1942,    7.3069,    6.8842,    6.2688,    5.7299,    7.2736,    5.6529,    5.1985,    9.2593,  999.0000,   12.3196,   14.4296,   14.8017,   14.4509,   14.0109,   16.0057,   17.4482,   19.2171,   21.3637,   22.4867,   21.3049,  999.0000,   25.4211,   29.0538,   31.4610,   34.1068,   35.5474,   35.1653,   36.9611,  999.0000,  999.0000,  999.0000,  999.0000,  999.0000,  999.0000,  999.0000,  999.0000,  999.0000,  999.0000,  999.0000,  999.0000,  999.0000,  999.0000,  999.0000,  999.0000,
 27-OCT-1996 20:29:05.44,   -2.4686,   -2.5536,   -2.3483,  999.0000,   -0.1279,    0.8732,  999.0000,  999.0000,    3.4258,    3.6596,    3.8069,    3.6903,    4.4369,    4.5955,    3.6582,    4.3172,    4.4503,    4.9330,    5.1301,  999.0000,    6.4699,    6.8204,    6.5879,    5.8983,    6.4554,    7.6810,    6.3729,    6.4721,    9.1773,   10.6920,   12.5161,   14.2678,   14.8137,   14.4439,   14.2370,   15.6232,   17.6888,   19.5562,   21.6586,   22.3145,   21.7378,  999.0000,  999.0000,   28.9126,   31.3168,   33.8030,   35.1616,  999.0000,   36.8653,   39.9924,  999.0000,   43.4296,   42.5749,   43.9941,   44.0428,   45.7987,   46.7483,   46.6014,   48.4142,  999.0000,   47.2044,   48.6087,   49.1687,   51.8170,  999.0000,
 27-OCT-1996 20:31:42.27,   -1.8599,   -1.9791,  999.0000,  999.0000,  999.0000,  999.0000,  999.0000,  999.0000,  999.0000,    3.6423,    3.6084,    3.3195,    3.7882,    3.5697,    2.8132,    3.6935,    3.9517,    4.4339,    4.5468,  999.0000,    5.8515,    6.2867,    6.3541,    5.8885,    6.6685,    7.8532,    7.4425,    7.8522,    9.1718,   10.3160,   12.4043,   14.0872,   14.7208,   14.0924,   14.4847,  999.0000,   17.9015,   19.5624,   21.6704,   22.4719,   21.8171,   22.6043,   25.2325,   28.3359,   30.9238,   32.6721,   34.3746,   34.3868,   36.0842,   39.4082,  999.0000,  999.0000,  999.0000,  999.0000,  999.0000,  999.0000,  999.0000,  999.0000,   49.4648,   49.2790,  999.0000,   49.3947,   49.8887,   51.9683,  999.0000,
 27-OCT-1996 20:34:21.37,  999.0000,  999.0000,  999.0000,  999.0000,    0.5026,    1.0962,  999.0000,  999.0000,    4.6269,    4.5887,    4.9876,    5.3024,    4.9108,    4.2649,    4.5557,    4.7237,    4.7391,    4.7757,    5.4623,    6.2007,    6.8682,    6.7239,    6.5177,    6.4079,    6.7522,    8.1275,    8.1223,    8.4999,    9.6644,   10.9999,   13.2641,   14.8145,   15.3416,   15.6168,   15.0617,   15.8350,  999.0000,   20.8660,   22.1113,   22.1728,   21.7948,   23.3483,   25.8950,  999.0000,  999.0000,   33.0986,   34.6933,   34.5294,   35.7010,   38.4242,   41.3410,   42.2172,   41.5439,   42.6496,   42.3097,   43.6574,  999.0000,   47.2915,  999.0000,  999.0000,  999.0000,  999.0000,   50.1039,   51.9363,  999.0000,
 27-OCT-1996 20:36:58.47,  999.0000,   -0.8213,   -0.4090,    0.0832,  999.0000,  999.0000,  999.0000,  999.0000,  999.0000,  999.0000,  999.0000,    5.0527,    5.1207,    4.8695,    4.9924,    5.0054,    4.8930,    4.4683,    5.2281,    6.6593,    6.8412,    6.9236,    7.0034,    5.9635,    6.8237,    7.9816,    8.0305,    8.6033,    9.9016,   11.6605,   12.7348,   14.5946,   16.2684,   15.4109,   15.4081,   16.8460,   18.7457,   21.1706,   22.7922,   22.5281,   22.2480,   24.1890,   26.9125,   29.2932,   31.5866,   33.5073,   35.0761,   34.3985,   35.7854,   38.5204,  999.0000,  999.0000,  999.0000,   42.8456,   43.9083,   44.3227,   47.4714,   47.4975,   49.3383,  999.0000,  999.0000,   50.8600,   50.4258,   51.5802,   53.0173,
 27-OCT-1996 20:39:35.43,   -2.7214,  999.0000,   -0.6035,   -0.1686,  999.0000,  999.0000,  999.0000,  999.0000,  999.0000,  999.0000,    4.4208,    4.3131,    4.3966,    4.0455,  999.0000,    4.1044,    3.8427,    4.3987,    4.7688,  999.0000,  999.0000,    6.1311,    6.1763,    6.0225,    5.9109,    7.4087,    6.7288,    8.4019,    9.5944,   10.9805,   12.3141,   14.9901,   15.9402,   15.3867,   15.1971,   16.2666,   18.4675,   21.2779,   23.2953,   22.7243,  999.0000,   24.4502,   26.8780,   29.3324,   31.4192,   33.3928,   35.1003,   34.2280,   35.3090,   38.7190,   41.1568,   43.1044,   42.4410,   43.0115,   45.3000,   45.5756,   47.1832,   48.6431,  999.0000,  999.0000,  999.0000,  999.0000,  999.0000,  999.0000,   52.6599,
 27-OCT-1996 20:42:12.90,   -2.4511,   -2.0056,  999.0000,  999.0000,  999.0000,    0.8556,    1.3616,  999.0000,    3.4061,    4.3673,    4.5062,    4.4186,    4.2971,    3.8513,  999.0000,    4.2781,    4.1548,  999.0000,    6.4227,    5.6206,    5.8919,    5.6998,    5.9984,    5.1200,    5.4881,    6.7751,    7.8707,    7.9771,    9.3283,   10.7138,  999.0000,  999.0000,   12.4858,   15.1779,   15.0013,   15.9244,   18.3553,   21.4660,   23.2594,   22.5042,   22.6414,   24.8990,   26.9132,  999.0000,  999.0000,   33.4402,   35.2304,  999.0000,  999.0000,  999.0000,  999.0000,  999.0000,  999.0000,  999.0000,  999.0000,  999.0000,  999.0000,  999.0000,  999.0000,  999.0000,  999.0000,  999.0000,  999.0000,  999.0000,  999.0000,
 27-OCT-1996 20:46:35.31,   -1.7623,   -1.9304,   -1.8760,   -0.4806,    0.2115,    1.2455,  999.0000,  999.0000,    3.6664,    3.9282,    4.1027,    4.3751,    4.4575,    4.0915,    3.8454,    4.2430,    4.1038,    4.8892,    6.1761,    5.4298,    5.9752,    6.1694,    6.3099,    5.5969,    6.0462,    8.3602,    7.8333,    8.5480,    9.6455,   11.5768,   13.8075,   15.1882,   15.1714,    1.6994,  999.0000,  999.0000,  999.0000,   21.8930,   23.2873,   22.6118,   23.6203,   24.9951,   27.3689,   29.8660,   32.0195,   33.7823,   35.3028,   34.9088,   35.3299,  999.0000,  999.0000,  999.0000,  999.0000,   42.4656,   43.5952,   45.1086,  999.0000,  999.0000,  999.0000,  999.0000,  999.0000,  999.0000,  999.0000,   51.9038,   53.5364,
 27-OCT-1996 20:49:14.45,   -3.4282,   -2.8560,   -2.3257,  999.0000,  999.0000,  999.0000,  999.0000,    2.3873,    3.6539,    4.1176,    4.1680,    4.5118,    4.7102,    4.3140,    4.0512,    3.6176,    3.7941,    4.3162,    4.8722,    5.3928,    6.0217,    6.3965,    6.4595,  999.0000,    7.0486,    7.7446,    6.7539,    8.5079,    9.7282,   10.6840,   13.9210,   15.4790,   15.8924,   15.3108,   15.0433,   16.0263,   18.3897,   21.5261,   22.9294,   23.0059,   23.9658,   25.7422,   28.1553,   30.8859,   33.0291,   34.4365,   35.9608,   35.3434,   36.2538,  999.0000,  999.0000,  999.0000,  999.0000,  999.0000,  999.0000,  999.0000,   47.2844,   49.0518,  999.0000,  999.0000,  999.0000,   49.2984,   49.0651,  999.0000,  999.0000,
 27-OCT-1996 20:51:53.85,   -5.1741,  999.0000,   -1.1940,   -0.1524,   -0.0537,   -0.1105,   -0.1638,  999.0000,    3.3650,    4.0844,    4.3758,    4.3766,    4.5808,    4.1671,    3.2604,    3.3875,    3.4664,    3.8720,    4.5100,    5.2071,    5.5748,    5.8127,    5.4609,    5.6457,    5.9905,    7.9213,    7.9555,    8.4624,    9.8483,   12.2864,   14.1441,   15.4261,   16.1780,  999.0000,   14.9504,   16.3259,   18.3903,   21.4738,   22.2874,   22.4905,   23.7322,   25.8402,   27.9903,   30.7426,   32.7962,   33.7260,   35.0189,   35.0370,   36.9211,   39.7662,  999.0000,  999.0000,  999.0000,   42.1748,   43.4274,   44.7631,   46.7046,  999.0000,   49.6574,  999.0000,  999.0000,  999.0000,  999.0000,  999.0000,  999.0000,
 27-OCT-1996 20:54:30.87,   -4.2533,  999.0000,  999.0000,  999.0000,  999.0000,   -0.3561,    0.8310,    1.8517,  999.0000,    4.3844,    4.8918,    4.1654,    4.3040,    3.8415,    2.3533,    2.7666,    3.1265,    3.1232,    3.9201,  999.0000,    5.7078,    5.7415,    5.7697,    5.0823,    6.6167,    7.6373,    8.2362,    8.4325,   10.1110,   11.9366,   13.8271,   15.8077,  999.0000,   14.8354,   15.0424,   16.7260,  999.0000,  999.0000,   22.4683,   22.0858,   23.8336,   25.8589,   28.0950,   30.4701,   32.5076,   33.4361,   34.3880,  999.0000,  999.0000,  999.0000,   41.8558,   40.5515,  999.0000,  999.0000,  999.0000,  999.0000,   47.6094,   49.4193,   50.6171,  999.0000,   48.2060,   48.5453,   49.5232,   49.5937,  999.0000,
 27-OCT-1996 20:57:08.34,   -2.7584,  999.0000,   -0.5985,    0.2750,    0.1579,   -0.3878,  999.0000,  999.0000,  999.0000,    4.0824,    4.4945,    4.4268,    4.3490,    4.0847,    4.0968,    4.0771,    4.0234,    4.0561,    4.6340,    5.5486,  999.0000,    6.0641,    5.2189,    4.5746,    7.0375,    7.7038,    8.2976,    8.5859,   10.0768,   12.5297,   14.2591,   15.8032,   16.8894,  999.0000,   15.0712,   16.5093,   18.3375,   21.3346,   22.7239,   22.4968,   24.1102,   25.8966,   27.9265,   30.3534,   32.0438,   33.3296,   34.7534,   35.6389,  999.0000,  999.0000,  999.0000,  999.0000,  999.0000,  999.0000,  999.0000,  999.0000,  999.0000,   49.2936,   49.1980,  999.0000,  999.0000,   49.3777,   49.7045,   51.1819,  999.0000,
 27-OCT-1996 20:59:45.31,   -4.4649,   -4.1175,  999.0000,  999.0000,  999.0000,  999.0000,   -0.4392,    1.3715,  999.0000,    4.2611,    4.6494,    5.3730,  999.0000,  999.0000,  999.0000,    4.8210,    4.7975,    5.2313,    5.6364,    6.1490,    5.9436,    5.7666,    6.0966,    6.2210,    5.2301,    7.5048,    6.8354,    7.5666,    9.5833,    9.5208,   13.2249,  999.0000,  999.0000,  999.0000,  999.0000,   16.6109,   17.8493,   20.0837,   22.5038,   23.0723,   24.0798,   25.8310,   27.7051,   30.6225,   32.2936,   32.7840,   34.7109,   36.5202,   38.2185,  999.0000,  999.0000,  999.0000,  999.0000,  999.0000,  999.0000,  999.0000,  999.0000,  999.0000,  999.0000,  999.0000,  999.0000,  999.0000,  999.0000,  999.0000,  999.0000,
 27-OCT-1996 21:02:22.34,  999.0000,  999.0000,  999.0000,    1.7014,    2.5168,    2.4438,  999.0000,  999.0000,  999.0000,  999.0000,    4.8724,    5.1521,    5.8314,  999.0000,    4.7229,    4.7509,    4.9085,    5.1565,    5.6663,    6.1133,    6.1989,    6.2625,    6.6846,    4.4427,    4.8678,    8.0317,    7.8591,    8.5429,   10.6336,   11.2477,  999.0000,   16.4323,   17.0466,  999.0000,   15.2405,   16.6737,   18.1963,   20.5301,   21.8450,   22.1748,   23.2158,   25.3779,   27.8407,   30.7181,   33.1382,   34.2317,   35.1867,   36.9207,  999.0000,  999.0000,  999.0000,  999.0000,  999.0000,  999.0000,  999.0000,  999.0000,  999.0000,  999.0000,  999.0000,  999.0000,  999.0000,  999.0000,  999.0000,  999.0000,   52.0707,
 27-OCT-1996 21:04:59.43,   -3.4275,   -2.6973,   -2.6837,  999.0000,  999.0000,  999.0000,  999.0000,  999.0000,  999.0000,  999.0000,  999.0000,    4.3555,    4.8658,    4.3308,    3.9988,    4.1577,    4.1046,    4.4553,    4.8393,    5.0530,    5.4729,    6.1568,    6.1743,    5.4452,    5.9611,    7.1176,    7.7756,    8.6003,   10.1509,   12.2575,   13.4224,   15.4219,  999.0000,  999.0000,   14.7542,   16.3541,   18.2325,   20.8220,   22.1273,   22.5809,   23.0331,   24.8877,   27.5285,   30.6227,   33.5583,   35.1937,   35.4403,   36.9428,  999.0000,  999.0000,  999.0000,   41.0903,   41.3537,  999.0000,  999.0000,   43.9711,   45.5926,   48.0467,  999.0000,  999.0000,  999.0000,   48.8330,   49.0122,   50.1323,  999.0000,
 27-OCT-1996 21:07:36.65,   -4.3747,  999.0000,  999.0000,  999.0000,  999.0000,    0.8978,    0.7695,  999.0000,  999.0000,  999.0000,    4.2523,    4.2374,    4.5521,    3.8557,    3.1881,  999.0000,    3.1267,    2.6473,    3.5612,    4.3017,    4.9959,    5.6756,    5.5760,    5.7500,    7.3221,    6.8182,    7.6563,    8.8510,   10.1716,   12.4991,   13.7968,   15.4084,   16.5186,   16.2770,   15.0955,   16.5142,   18.1233,   20.8839,   22.2275,   23.1181,   23.0301,   23.8925,   26.4282,   29.8693,   33.0324,   34.9049,  999.0000,  999.0000,  999.0000,  999.0000,  999.0000,  999.0000,  999.0000,  999.0000,  999.0000,  999.0000,   47.5165,   48.6023,   50.6022,  999.0000,  999.0000,  999.0000,  999.0000,   51.4645,   51.9355,
 27-OCT-1996 21:10:13.75,   -2.8629,   -2.6738,   -2.6839,   -2.2127,  999.0000,  999.0000,  999.0000,  999.0000,  999.0000,  999.0000,    3.4445,    4.0985,    4.6788,    4.0798,    3.4402,    3.5744,    3.7713,  999.0000,    4.0683,    4.9256,    5.2281,    5.5504,    6.6051,    6.9544,    7.1889,    7.0904,    7.8158,    8.7220,    9.5381,   11.8665,   13.2372,   14.1854,   15.8796,   15.8578,   15.0135,   15.8683,   17.9394,   20.4825,   22.0213,   22.5516,   22.6953,   23.3853,   26.2270,   29.6420,   32.6021,   34.9086,   35.4431,   36.0088,  999.0000,  999.0000,  999.0000,  999.0000,   41.6763,   43.3076,   44.9382,   46.3651,   48.5644,  999.0000,  999.0000,  999.0000,  999.0000,  999.0000,  999.0000,  999.0000,   50.1462,
 27-OCT-1996 21:12:51.04,  999.0000,  999.0000,  999.0000,  999.0000,   -0.0120,    0.0896,    1.3403,  999.0000,  999.0000,    3.9738,    3.9553,    4.1783,    4.2660,    3.6431,    3.2102,    3.0646,    3.2670,    3.4392,  999.0000,    4.5127,    4.8483,    4.7378,  999.0000,    5.4821,    5.8532,    6.6113,    8.2410,    8.6128,    9.7466,   11.3696,   12.8023,   14.0087,   15.0524,   15.0647,   14.9557,   15.6973,   17.0263,   19.9479,   21.7336,   22.2702,   22.0739,   22.9265,   25.6276,   29.1008,   32.3453,   35.5643,   36.2568,  999.0000,  999.0000,   40.5177,   41.3284,   42.7716,  999.0000,  999.0000,  999.0000,  999.0000,   48.5091,   49.1333,  999.0000,   49.2321,   50.7555,   50.1560,  999.0000,  999.0000,   49.8170,
 27-OCT-1996 21:15:27.96,  999.0000,  999.0000,  999.0000,    0.2525,    0.7778,    0.5511,  999.0000,    3.5193,    3.7832,    3.5199,    3.4774,    3.2297,    3.3354,    3.1818,    3.0081,    3.0457,    3.5145,    3.7097,    4.0196,    3.8060,    4.0834,    4.6376,  999.0000,    5.2248,    5.9344,    6.1120,    8.1598,    8.4434,    9.6712,   11.4494,   13.1418,   14.1894,   14.8014,   15.4714,   15.5640,   15.8495,   17.2767,  999.0000,  999.0000,   22.3024,   22.1137,   23.0083,  999.0000,  999.0000,  999.0000,   34.4954,   35.3343,   36.0807,  999.0000,  999.0000,  999.0000,  999.0000,  999.0000,  999.0000,  999.0000,  999.0000,  999.0000,  999.0000,  999.0000,   49.6102,   50.2577,   50.1091,   50.0642,   50.7408,   50.6766,
 27-OCT-1996 21:18:04.99,   -4.4704,  999.0000,  999.0000,   -0.6208,   -0.1433,    0.2649,  999.0000,  999.0000,  999.0000,    3.7873,    4.3938,    3.8024,    3.5215,    2.9022,    2.8746,    3.2511,    3.5814,    3.6695,    3.7408,    4.0454,    3.8972,    4.0879,  999.0000,    4.9904,    6.3440,    6.4521,    8.3159,    8.5103,    9.9534,   11.8312,   12.7444,   14.3310,   15.0114,   15.7731,   15.7829,  999.0000,   17.9564,   21.0583,   22.5080,   22.3981,   22.0533,   22.9160,   26.0159,   29.3592,   31.3456,  999.0000,  999.0000,  999.0000,  999.0000,  999.0000,  999.0000,  999.0000,  999.0000,  999.0000,  999.0000,   46.2202,   47.5173,   48.2818,   50.6369,   50.2518,   50.1809,   50.6730,   50.4948,   50.3336,   51.3890,
 27-OCT-1996 21:20:47.67,   -1.9796,  999.0000,  999.0000,  999.0000,   -0.1976,    0.0929,  999.0000,  999.0000,    3.0248,    3.1308,  999.0000,    4.4064,    3.8258,    3.0625,    3.8121,    4.1582,    4.3483,    4.2909,  999.0000,    4.8804,    4.9223,    5.1235,    4.4068,    5.5485,    5.8784,    6.8093,    8.0370,    8.2640,    9.8978,  999.0000,  999.0000,   14.7037,   15.9598,   15.7695,   15.6493,   16.3135,   17.9722,   21.8188,   22.6904,   22.0532,   22.5505,   23.6285,   26.4321,   29.3646,   31.8771,   34.0949,   35.1609,   36.6916,   38.3872,   39.8194,   40.1538,  999.0000,  999.0000,  999.0000,  999.0000,  999.0000,   47.6809,   49.0138,   50.3122,   49.9806,   50.9992,  999.0000,   50.0672,   50.2529,   51.3216,
 27-OCT-1996 21:23:28.37,   -1.9992,   -2.0012,   -2.0606,  999.0000,   -0.1741,    0.6852,    1.8593,    2.3046,    2.9820,    3.5113,    3.7776,    3.6250,    3.3647,    2.9633,    3.6502,    4.3300,    4.8058,    5.0994,    5.4900,    5.5566,    5.4452,    5.2948,  999.0000,    5.2651,    4.8507,    6.4387,    7.8202,    8.8946,    9.9516,   11.9230,   13.2283,   14.9984,   16.3202,   15.4947,   15.8161,   16.5516,   18.9100,  999.0000,   22.7754,   22.2698,   22.9152,   23.7024,   26.5759,   29.7307,   32.2432,   34.3955,   35.4132,   37.0793,   38.8121,   39.8359,   40.5768,  999.0000,  999.0000,  999.0000,   44.7460,   46.7037,   47.8610,   49.4683,  999.0000,   49.6785,   50.4014,   50.8137,   50.4038,   50.7608,   51.2832,
 27-OCT-1996 21:26:06.74,  999.0000,  999.0000,  999.0000,  999.0000,  999.0000,  999.0000,  999.0000,  999.0000,  999.0000,    1.9450,    2.2854,    3.2237,    3.4899,    3.1779,    3.1285,    3.9539,    4.3012,    5.1689,    5.0520,    5.2954,    5.0233,    4.8917,  999.0000,    4.1699,    4.6817,    6.5999,    8.2439,    8.4339,    9.5573,   11.5807,   12.4266,   13.9754,   15.3978,   15.9434,   17.1547,  999.0000,   19.9791,   22.3988,   22.8927,   22.1285,   22.6106,   23.6332,   26.6606,   29.8497,   32.7491,   34.8641,   35.5951,   37.3099,  999.0000,  999.0000,  999.0000,  999.0000,  999.0000,   42.5806,   44.0553,   45.9312,  999.0000,  999.0000,   49.8135,   50.8087,   51.4400,   51.7599,   50.8712,   50.8266,   51.5292,
 27-OCT-1996 21:28:45.18,   -3.1659,  999.0000,  999.0000,  999.0000,  999.0000,    2.4498,    2.7748,    1.4358,  999.0000,  999.0000,  999.0000,  999.0000,    4.2773,    3.0885,    2.8995,    3.2905,    3.8104,  999.0000,    4.5296,    4.4991,    5.0716,    5.0543,  999.0000,    4.6243,    4.7448,    6.9058,    8.3370,    8.2322,   10.0153,   10.8234,  999.0000,  999.0000,  999.0000,   15.8968,   16.6183,   16.5314,   18.8306,   22.3540,   23.1588,   22.0441,   22.5539,   24.1391,  999.0000,  999.0000,  999.0000,   35.5575,   36.0505,   37.6755,   38.8430,   39.0696,  999.0000,  999.0000,  999.0000,  999.0000,  999.0000,  999.0000,  999.0000,  999.0000,  999.0000,  999.0000,   50.9406,   50.7435,  999.0000,   50.7598,   51.4088,
 27-OCT-1996 21:31:24.29,   -4.3062,   -4.2984,   -3.2029,  999.0000,  999.0000,    0.6955,    1.6839,  999.0000,    3.5411,    3.2545,    3.9660,  999.0000,    4.2917,    2.5197,    3.2715,    3.5553,    3.3635,    4.3760,    4.4915,    4.1619,    6.5110,    5.4090,  999.0000,  999.0000,  999.0000,   -3.1234,   -2.6719,   -1.5843,  999.0000,   11.6626,   12.9223,   13.9249,   15.4114,   15.7944,   15.9470,   16.6021,   18.9393,   22.4849,   23.3369,   22.2699,   22.5076,   24.3839,   26.9761,   30.1142,   33.3678,   35.7387,   36.1911,  999.0000,  999.0000,  999.0000,  999.0000,  999.0000,  999.0000,  999.0000,  999.0000,   46.3600,   47.0097,   47.8886,   50.1619,  999.0000,  999.0000,   52.0618,   52.3955,   50.6013,   51.2931,
 27-OCT-1996 21:34:04.47,   -3.7608,   -4.5939,  999.0000,  999.0000,  999.0000,    0.4817,    1.5385,    3.4103,    4.0188,    4.2605,  999.0000,    4.7337,    4.2790,  999.0000,    3.8773,    4.4202,  999.0000,    5.1277,    5.3412,    4.9348,  999.0000,    8.0931,    5.6906,    3.6789,    4.6453,    2.6061,  999.0000,  999.0000,   10.2573,   12.0399,   12.5647,   13.8232,   15.3538,   15.8916,   16.8129,   16.3902,  999.0000,   22.3237,   23.0108,   22.5584,   23.2146,   25.3532,   27.9941,   30.5108,   33.7894,   36.0925,   36.3757,   38.1825,   39.2194,   39.9900,   41.9740,   43.3573,   42.8427,  999.0000,  999.0000,  999.0000,  999.0000,  999.0000,  999.0000,   49.3367,   50.3183,  999.0000,   51.9929,  999.0000,   51.7038,
 27-OCT-1996 21:36:47.30,   -2.4246,   -3.0201,   -2.5256,   -0.4739,    1.5920,    2.3971,    2.3089,    3.9491,    4.3701,    4.4682,    4.7640,  999.0000,    3.8421,    3.3930,    4.1041,    4.7117,    4.8780,    4.9660,  999.0000,  999.0000,   11.1712,   10.9732,  999.0000,    4.2479,    5.3740,    7.3408,    6.4676,    6.4467,   10.3680,   11.6867,   12.7442,   14.1340,   15.5172,   15.8894,   16.6206,   16.7810,   19.1301,   21.7639,   22.3831,   22.9957,   23.9738,   25.6812,   28.0004,   30.2439,   33.4885,   35.9555,   36.1068,  999.0000,  999.0000,  999.0000,  999.0000,   41.3471,   41.2608,   43.4680,   44.1319,   45.1758,   47.4847,   47.5403,   49.7897,   49.4101,  999.0000,  999.0000,   52.0893,   50.8610,   50.9596,
 27-OCT-1996 21:39:29.58,   -1.9888,  999.0000,  999.0000,  999.0000,  999.0000,  999.0000,  999.0000,  999.0000,  999.0000,    4.5281,    4.9704,    4.5210,    3.8674,    3.1573,    3.4755,  999.0000,  999.0000,  999.0000,  999.0000,  999.0000,    5.1143,    5.1628,    5.1634,  999.0000,    5.5681,    6.8784,    8.4707,    8.1287,    9.9854,   10.7019,  999.0000,   14.0816,   15.8759,   16.0773,   17.0539,   17.3219,   19.0311,   21.6013,   21.7721,   22.9714,   23.8452,   25.1367,   27.4899,   30.0568,   33.8213,   35.9484,  999.0000,  999.0000,  999.0000,  999.0000,  999.0000,  999.0000,  999.0000,  999.0000,  999.0000,   45.7954,   48.2584,   49.4665,  999.0000,   49.7953,   49.1099,   49.8337,   49.9977,   50.2676,   51.1441,
 27-OCT-1996 21:42:11.83,  999.0000,  999.0000,  999.0000,  999.0000,  999.0000,  999.0000,  999.0000,  999.0000,  999.0000,    4.4468,    4.6608,    4.3170,    3.3936,    2.4372,  999.0000,    2.3846,    3.4435,    4.1814,    4.2664,    3.9178,    4.8894,    4.6912,  999.0000,    3.1579,    4.7633,    9.0431,    7.7936,   10.0351,   10.1744,   11.2768,   11.1187,   14.0085,   15.3130,   16.1209,   16.8822,   16.9805,   19.4353,   22.0223,   22.0249,   22.4098,   23.2893,   24.5689,   27.0338,   29.6602,   33.5898,   35.6589,   35.7091,   37.4652,   38.9486,   39.8130,  999.0000,  999.0000,  999.0000,   43.3689,   44.3446,   46.0205,   48.4122,   48.9220,   51.2574,   51.3295,  999.0000,   50.7287,   49.5790,   50.5916,  999.0000,
 27-OCT-1996 21:44:55.65,   -1.4741,  999.0000,  999.0000,    1.5151,    2.2578,    3.2990,    3.1472,  999.0000,  999.0000,    4.6767,    4.6765,    3.7522,    3.4239,  999.0000,    2.2984,    2.3689,    3.3630,    3.9555,    3.9338,    3.7308,    4.4472,    4.9927,    5.7010,    2.9251,    4.5612,    9.1799,    9.3090,    8.1996,    9.8789,   11.0947,   11.0350,  999.0000,   14.9951,   15.6115,   16.9181,   17.4443,   20.7113,   22.6441,   22.0727,   21.6789,   22.9811,   24.7218,   26.9556,   29.3322,   33.3633,   35.7709,   35.7112,   36.7385,   38.5482,   40.1545,   40.7710,   40.9174,   40.9059,   43.6252,   45.3669,   46.4735,   48.7464,   49.3876,   50.9413,   51.1595,  999.0000,  999.0000,   52.0202,   51.4033,  999.0000,
 27-OCT-1996 21:47:32.95,   -2.6164,   -2.1243,   -0.3298,  999.0000,    2.2799,    2.6871,  999.0000,  999.0000,    3.9243,    4.8372,    4.9081,  999.0000,    3.1520,    2.5864,    3.8963,  999.0000,  999.0000,  999.0000,  999.0000,    2.8248,    3.7107,    5.6632,    6.2088,    2.7146,    8.4377,    8.8451,    6.7202,    8.3638,    9.6497,   11.2346,   11.5219,   13.5063,   14.7458,   15.8554,   17.0607,   20.9384,   21.9417,   23.2477,   22.0146,   21.5853,   22.9811,   24.8808,   27.4072,  999.0000,  999.0000,   36.0641,   36.0674,   36.9061,  999.0000,  999.0000,  999.0000,  999.0000,  999.0000,  999.0000,   44.9586,   46.2218,   48.2875,   49.4949,   50.4830,  999.0000,  999.0000,   49.1777,   50.3992,   50.7766,  999.0000,
 27-OCT-1996 21:50:12.88,  999.0000,  999.0000,  999.0000,  999.0000,    1.5660,    2.0068,    1.8897,  999.0000,  999.0000,    3.3846,    3.5883,    3.3398,    2.8684,    2.2668,    2.9593,    3.3141,    3.4942,  999.0000,  999.0000,  999.0000,  999.0000,  999.0000,  999.0000,  999.0000,  999.0000,    7.0943,    6.8711,    7.6026,    9.4075,   10.9104,   12.2364,   13.3109,   15.1330,   16.4159,   16.9522,  999.0000,   22.7028,  999.0000,   21.6293,   21.4213,   22.9106,   24.9182,   27.5418,   29.8832,   33.2702,  999.0000,  999.0000,  999.0000,  999.0000,  999.0000,  999.0000,  999.0000,  999.0000,   42.8356,   44.6160,   45.6501,   47.6583,   48.9986,  999.0000,  999.0000,  999.0000,   49.6335,   50.6672,   50.5526,   50.6453,
 27-OCT-1996 21:52:53.21,   -3.5729,   -2.6292,  999.0000,    0.3042,    0.8036,    0.4692,    0.8143,    0.4536,  999.0000,    1.8336,    2.1985,    2.2781,    2.3355,    1.8875,    1.9958,    2.3865,    2.6267,    2.8273,    3.0078,    3.6463,    3.9214,    3.3459,    5.4361,    3.9569,    5.1626,    6.8770,    6.0954,    6.4580,  999.0000,  999.0000,  999.0000,  999.0000,   15.3261,   16.7072,   17.4563,   19.2144,   22.2870,   24.0113,   21.6893,   21.2395,   22.4840,   24.9756,   27.9488,   30.6413,   34.0562,   36.3436,   36.2932,   37.4866,   38.6105,  999.0000,  999.0000,  999.0000,  999.0000,  999.0000,  999.0000,   46.3329,   47.7153,   48.6673,   51.3058,   51.4026,   49.8903,   50.5624,   50.1964,   49.8520,  999.0000,
 27-OCT-1996 21:55:32.52,  999.0000,  999.0000,  999.0000,  999.0000,    1.3978,  999.0000,  999.0000,    1.7486,    2.5646,    2.2231,    2.1200,    2.4507,    1.8971,    1.0354,    1.4902,    2.0076,    2.1641,    2.6744,  999.0000,    3.5064,    3.3762,    3.5945,  999.0000,    4.7284,    4.8012,    6.6566,    6.0304,    7.7401,    9.2879,   10.7483,   11.4114,   12.9764,   14.7387,   16.3876,   17.9449,   19.8613,   22.1606,   23.1659,   22.0692,   21.4808,   22.6034,   24.7900,   27.7119,   30.8627,   34.7956,   36.6190,   36.4952,   37.5445,   38.5464,   40.0172,   40.7692,  999.0000,  999.0000,   43.4649,   45.3298,   46.2647,   47.3873,   49.2100,  999.0000,   50.7960,  999.0000,  999.0000,   51.7144,   50.2693,  999.0000,
 27-OCT-1996 21:58:10.13,   -3.3017,   -2.9963,  999.0000,  999.0000,    0.3459,    0.7925,    0.6180,  999.0000,    1.8740,    2.8720,    2.9608,    3.2376,    2.5130,  999.0000,    2.0256,    2.2939,    2.0904,    2.5330,    3.2880,    3.6730,    3.9606,    4.5872,    5.8294,  999.0000,    5.1324,  999.0000,    6.1534,    7.7032,    9.1392,   10.3667,   11.5077,   12.6991,   14.7207,   16.2874,   17.3440,   20.1318,   22.6844,   23.9002,   22.0757,   21.2987,   22.5861,   24.7823,   27.3445,   30.5335,   34.4173,   36.5135,   36.5626,   37.1459,  999.0000,  999.0000,   39.5965,   40.6399,   41.6269,   43.4292,   45.4979,   46.3028,   47.2899,   49.3118,   51.0142,   51.6567,   50.1635,   50.7292,   52.3986,  999.0000,  999.0000,
 27-OCT-1996 22:00:48.20,  999.0000,  999.0000,  999.0000,    0.3113,    1.5579,    2.3632,  999.0000,  999.0000,  999.0000,    4.3396,    4.3229,    3.8230,    2.6879,    2.2615,    2.0744,    2.1921,    2.4616,    2.9315,    3.3569,    3.8209,  999.0000,    4.4844,    5.4078,    4.0420,    5.1507,    7.5617,    7.3412,    7.9867,    9.1436,   10.2335,   11.7023,   12.8733,   14.9218,   16.4393,   17.2544,   20.4506,   23.4506,   23.8449,   21.7718,   21.4850,   22.7588,   24.9138,   27.5124,   31.0417,   34.9433,   36.3829,   35.8604,   37.3250,   38.8718,  999.0000,  999.0000,   40.5784,   42.3102,   43.8324,   45.7391,   47.3993,   48.9205,   49.9796,   50.7988,   51.2854,  999.0000,  999.0000,  999.0000,  999.0000,   51.2488,
 27-OCT-1996 22:03:27.75,   -2.4490,  999.0000,  999.0000,  999.0000,  999.0000,  999.0000,  999.0000,  999.0000,  999.0000,    4.0870,    4.1581,    3.8753,    2.9921,    2.7561,    2.1475,    2.1943,    2.8975,    3.2210,    3.7445,    4.1624,  999.0000,  999.0000,    4.3745,    6.0625,  999.0000,   14.9748,   14.5486,    7.1740,    9.0912,   10.3674,   11.8417,   13.1995,   15.3072,   16.9747,   18.1627,   21.1006,   23.7585,   23.5976,  999.0000,   21.4827,   23.0184,   25.4067,   27.7679,   31.2245,   35.1801,   36.5444,   36.0797,   37.6585,  999.0000,  999.0000,  999.0000,   41.4893,   42.3212,   43.5187,   45.7164,   47.8074,   49.0563,   50.1839,   51.5383,   51.4259,  999.0000,  999.0000,  999.0000,   49.6565,   50.3504,
 27-OCT-1996 22:06:05.29,   -3.2737,   -3.2954,   -1.8728,   -0.1655,    0.1143,    2.0700,    2.6276,    2.3722,    3.0639,    4.4544,    4.4072,    3.9083,    3.1304,    2.6000,    2.6184,    2.7854,    2.5359,    3.1183,    4.0066,    4.2258,    4.6710,    5.0332,  999.0000,  999.0000,    6.2291,   10.3373,   10.6082,    8.4316,    9.3228,   10.5433,   11.7804,   13.6495,   15.9021,   18.0152,   19.6854,   22.6538,   24.3255,   23.2595,   21.6886,   21.9690,   22.9521,   26.3749,   30.0452,   31.7139,   35.1086,   37.3961,   36.0951,   36.9250,   38.7633,   40.4389,   39.6292,   41.5277,   43.3986,   44.6256,   45.7138,   47.6376,  999.0000,  999.0000,  999.0000,  999.0000,   51.2650,   52.3114,   52.3265,   49.6550,   50.0294,
 27-OCT-1996 22:08:44.27,   -5.7208,   -4.6432,   -4.2463,  999.0000,  999.0000,    1.8724,    3.3660,  999.0000,    3.4214,    4.1441,    4.1561,    3.5986,    3.1691,    2.5371,    2.8078,    2.8830,    2.5684,  999.0000,  999.0000,  999.0000,  999.0000,  999.0000,  999.0000,  999.0000,    6.8078,    8.0468,    8.5642,    8.6223,   10.1194,   10.9819,   12.1704,   14.0566,   15.9617,   18.4831,   20.2749,   23.4695,   24.7680,   23.3076,   21.9489,   22.0287,   23.2469,   25.6673,   28.3410,   31.9502,   35.6431,   37.3284,   36.8528,   37.8347,  999.0000,  999.0000,  999.0000,   41.6618,   43.2988,  999.0000,  999.0000,   47.1457,   48.4879,  999.0000,  999.0000,  999.0000,  999.0000,   52.5715,   51.2291,  999.0000,  999.0000,
 27-OCT-1996 22:11:23.55,   -5.7555,  999.0000,  999.0000,  999.0000,  999.0000,  999.0000,  999.0000,    2.5421,    3.0934,    3.5226,    3.6355,    3.1716,    3.0081,    2.0335,  999.0000,  999.0000,  999.0000,  999.0000,    3.8424,    3.5656,    3.7051,  999.0000,    5.3803,    6.0718,    7.0917,    8.7951,    9.4022,    9.1634,   10.1555,   11.1469,   12.4091,   14.2768,  999.0000,  999.0000,   20.7167,   23.8218,   24.7505,   23.5380,   22.3869,   21.9598,   23.2832,   25.4639,   28.6275,   32.7303,  999.0000,   37.8650,   37.8850,   39.1358,   40.3589,   41.3577,  999.0000,  999.0000,  999.0000,  999.0000,  999.0000,  999.0000,  999.0000,  999.0000,   51.8003,   52.0099,   53.3941,   52.6945,   50.4298,   49.2862,   50.6550,
 27-OCT-1996 22:14:00.34,   -1.8558,   -2.5891,   -2.6895,   -1.4488,   -0.1998,    0.3542,    1.8990,  999.0000,  999.0000,  999.0000,    4.1365,    3.7640,    3.2683,    1.6166,    1.4213,    2.0118,    2.6050,    2.9569,    3.6889,    3.9497,    3.6152,    4.8007,    5.7796,    7.5381,    6.7614,    8.9272,    7.8734,    8.2965,    9.0053,   10.9398,   12.0335,   14.1622,   16.0377,   18.1539,   20.7377,   23.9858,   24.4097,   23.4477,   22.6079,   21.9930,   23.2564,   25.6743,   29.3318,   32.3316,   36.0333,   36.9835,   39.7217,  999.0000,   40.5917,   41.2425,   41.4766,   42.8843,   44.2268,   46.2679,   47.8883,   48.6829,   49.4895,   50.8090,   52.0760,   51.3064,  999.0000,  999.0000,   51.0748,   49.5926,   50.1279,
 27-OCT-1996 22:16:37.24,   -2.1611,   -2.9086,   -3.1806,  999.0000,  999.0000,    0.5479,    1.7924,    2.4852,    3.1784,    3.6660,    3.5838,    3.3904,    2.9196,  999.0000,  999.0000,  999.0000,  999.0000,  999.0000,  999.0000,  999.0000,    3.4252,    3.3540,    4.9581,  999.0000,    8.0165,    7.8414,   -7.5531,   -7.1235,  999.0000,   10.5709,   11.7287,  999.0000,  999.0000,  999.0000,   19.7283,   23.0107,   24.2482,   23.5638,   22.7254,   21.9389,   22.6842,   24.8339,   27.9375,   32.2804,   35.6735,   36.4325,   36.7357,  999.0000,  999.0000,  999.0000,  999.0000,  999.0000,   44.6194,   47.0250,   48.4787,   49.1074,   50.2873,   51.7554,  999.0000,   49.2142,   50.9475,   51.3483,   50.0505,   49.0497,   48.9864,
 27-OCT-1996 22:19:16.53,   -3.0179,   -2.8020,   -2.3591,  999.0000,  999.0000,  999.0000,    1.4724,    1.6301,    2.5377,    2.5944,    2.6308,  999.0000,    3.0209,    2.7916,    2.4702,  999.0000,  999.0000,  999.0000,  999.0000,  999.0000,    3.6681,    3.8504,    4.4974,    4.6540,    6.3779,    7.7605,    2.6213,  999.0000,    9.0145,   10.1816,   11.4230,   11.3318,   13.5021,   17.0728,  999.0000,  999.0000,   24.3910,   23.6486,   22.8881,   22.1331,   22.1658,   24.4623,   27.8493,   32.3923,  999.0000,   37.1870,   36.5646,  999.0000,  999.0000,  999.0000,  999.0000,  999.0000,   44.9535,   47.2463,   47.5746,   49.4280,   51.3838,   52.1737,  999.0000,   49.4262,   50.0035,   51.2018,   50.5287,   48.9706,   49.3060,
 27-OCT-1996 22:21:55.81,   -2.8194,   -2.3304,   -1.2646,    0.6551,    1.1428,    1.5935,    1.3638,    1.4519,    2.3575,    2.9686,    3.0448,    3.6497,    3.2198,    3.0328,    1.7506,    1.8767,    2.1101,    2.2072,  999.0000,  999.0000,  999.0000,  999.0000,  999.0000,    5.1983,    6.3945,    7.3607,    8.4462,    6.2034,    9.5409,   10.2327,   11.1935,   12.4538,   14.7186,   17.4167,   19.5352,   22.8140,   24.4398,   24.0973,   23.2025,   22.7107,   22.3940,   24.4162,   28.0142,   32.8576,   34.2539,  999.0000,  999.0000,  999.0000,  999.0000,  999.0000,  999.0000,  999.0000,  999.0000,   47.4077,   47.7449,   49.7172,   51.9614,   52.6940,  999.0000,   49.8947,   50.3411,   50.8536,   51.2496,   49.8155,   49.3050,
 27-OCT-1996 22:24:35.05,   -2.7400,   -3.0681,   -3.0001,  999.0000,  999.0000,    0.5780,    1.6381,    2.4272,  999.0000,  999.0000,  999.0000,    3.6913,    2.9073,    2.1814,  999.0000,  999.0000,  999.0000,  999.0000,    2.8194,    3.1304,    3.4277,  999.0000,  999.0000,  999.0000,    7.0900,    8.0726,    8.6331,    9.0575,    9.4208,   10.2266,   11.3276,   13.2256,   15.6791,   17.6859,   19.8975,   23.1432,   25.1491,   24.8270,   23.5038,   23.1857,   22.6340,   24.7052,   28.4716,   33.3304,   35.2004,  999.0000,  999.0000,  999.0000,   40.3829,   41.1102,   41.2733,   42.5191,   43.8594,   46.6153,   48.1468,   49.7545,   50.9968,  999.0000,   52.5118,   50.4680,   50.4864,   50.3510,   50.4908,   49.2850,   49.0184,
 27-OCT-1996 22:27:14.41,   -2.5622,   -2.5914,   -2.4631,  999.0000,  999.0000,  999.0000,    1.0653,    2.0675,    2.3275,    3.4700,    3.8155,    3.8681,    3.1673,    1.2635,    1.0796,    1.2327,    1.4908,    2.1052,    2.7461,    3.2018,  999.0000,    3.2940,    4.2137,    4.9827,    6.9481,    8.0098,    8.4806,    8.5389,    9.2462,   10.0037,   11.6291,   13.3585,   16.0881,   18.2147,   20.2313,   23.9833,   25.3953,   24.7377,   23.2959,   23.0835,   22.9291,   25.5972,   29.5122,   33.8496,   34.7477,   36.2493,   37.2286,   38.8001,  999.0000,  999.0000,  999.0000,   43.2137,   44.7116,   46.3793,   48.1710,   49.5504,   50.3421,   51.8812,   51.8696,  999.0000,   50.6103,   50.4000,   51.2217,  999.0000,  999.0000,
 27-OCT-1996 22:29:51.45,   -2.8492,  999.0000,   -1.9040,   -0.5918,    1.7451,    1.9257,    2.5536,    2.6110,    2.7516,    3.6470,    4.2687,    4.1616,    3.4820,  999.0000,  999.0000,  999.0000,  999.0000,    2.2683,    2.4092,    3.0132,    2.9042,    4.1947,  999.0000,    4.6909,    6.6265,    8.0584,    8.6818,    9.3409,    9.5035,   10.3009,   11.8535,   14.0959,   16.5180,   18.7286,   20.7782,   24.1282,   25.2640,   24.7723,   23.5137,   23.3545,   23.4413,   26.1454,   29.9580,   34.3296,   36.6761,   36.2179,   37.5223,  999.0000,  999.0000,  999.0000,  999.0000,  999.0000,  999.0000,   47.1702,   48.4745,   50.7402,   51.4844,   52.8361,  999.0000,  999.0000,  999.0000,   50.5880,  999.0000,   50.0874,   49.5295,
 27-OCT-1996 22:32:28.73,   -3.1629,  999.0000,  999.0000,  999.0000,  999.0000,  999.0000,  999.0000,  999.0000,  999.0000,    2.7623,    3.3820,    3.3916,    2.9961,    2.5929,    1.6581,  999.0000,  999.0000,  999.0000,  999.0000,    2.7723,    2.5153,    4.1512,    3.9716,    4.7433,    7.0126,    7.6542,    8.7120,    9.2886,    9.3262,   10.3639,   11.7013,   14.5482,   16.7101,   18.7957,   21.2189,   23.5426,   24.7408,   24.4211,   23.5615,   23.2345,   23.2191,   25.9201,   30.5980,   34.8794,   37.0164,   37.2611,   38.1811,   38.4238,   39.9495,   40.0839,  999.0000,  999.0000,  999.0000,   48.9634,   50.3105,   51.4151,   52.5401,   53.2278,   51.9662,   51.6455,   51.1958,   51.3762,   51.8230,   50.6409,  999.0000,
 27-OCT-1996 22:35:05.68,   -3.9339,  999.0000,  999.0000,  999.0000,  999.0000,  999.0000,  999.0000,    2.4537,    1.4272,    2.5550,  999.0000,    3.1175,    2.9914,    2.3585,    1.3139,    1.6408,    1.8758,    2.2244,    2.4372,    3.2306,    3.4443,    5.4780,  999.0000,  999.0000,    6.9415,    7.2409,    8.4853,    9.3498,    9.1781,   10.5092,   11.7802,   14.3788,   16.1114,   18.5469,   21.4841,   24.4470,   25.3276,   24.1073,   23.9783,   23.6415,   24.4639,   26.0698,   30.7032,   33.4796,   37.2279,   37.1967,   38.5623,   38.4914,  999.0000,  999.0000,  999.0000,  999.0000,  999.0000,  999.0000,  999.0000,   52.1108,   53.7217,  999.0000,  999.0000,   52.7123,   51.5779,   51.9794,   51.4981,   50.1228,  999.0000,
 27-OCT-1996 22:37:44.89,   -3.8038,  999.0000,   -2.4231,   -1.6511,  999.0000,  999.0000,    3.0379,    2.6457,  999.0000,    2.4711,    3.4068,    3.2984,    3.9787,    2.7289,    0.9127,    1.5417,    2.1853,    2.5061,    2.9402,    3.8392,    3.7770,    3.8800,  999.0000,    5.5381,    6.8555,    7.9429,    8.5509,    8.8241,    9.3004,   10.3687,   12.1959,   14.3257,   16.2479,   18.6028,   22.0092,   25.0511,   25.3339,   24.0480,   23.5363,   23.3146,   24.4874,   26.2571,   31.2759,  999.0000,   37.5280,  999.0000,  999.0000,  999.0000,  999.0000,  999.0000,  999.0000,   45.0927,   46.7804,   48.8877,   50.7874,   52.2867,  999.0000,  999.0000,   52.4749,   52.1290,   51.1951,   52.3825,   51.2065,   50.2318,   51.7082,
 27-OCT-1996 22:40:22.01,   -3.6241,  999.0000,   -3.1722,   -2.7557,   -1.1271,  999.0000,  999.0000,    2.6631,    3.1952,    4.0750,    4.1853,    3.4770,    3.5257,    2.8601,  999.0000,    2.2844,    2.4018,    2.5559,    2.9228,    3.2690,    3.3757,    4.6901,    5.6404,    5.7303,    7.1837,    7.8714,    8.6969,    9.2551,    9.2465,   10.4192,   12.3833,   14.7690,   16.8813,   18.8922,   22.8796,   25.6659,   25.2892,   23.3433,   23.0608,   22.7787,   23.6354,   27.0874,   32.1270,   35.7020,   36.7525,   38.2761,  999.0000,  999.0000,  999.0000,  999.0000,  999.0000,   45.5475,   47.0275,   49.0582,   51.0021,   52.4018,  999.0000,  999.0000,  999.0000,   52.0072,   52.8991,   53.0719,  999.0000,   49.3023,   50.6896,
 27-OCT-1996 22:43:04.53,   -5.8192,  999.0000,   -3.9078,   -2.5291,   -1.7242,   -0.5922,  999.0000,    2.1783,    3.1796,  999.0000,  999.0000,  999.0000,    3.4798,    2.6633,    2.1038,    2.6069,    2.2582,    2.5295,    3.3265,    3.4753,    4.0864,    4.6501,    5.5939,    4.1073,    5.4449,    6.5420,    6.8911,    7.2503,    7.8006,    8.9629,   10.7795,   13.0794,   17.0377,   18.8502,   21.4816,   25.4435,   25.2380,   23.6671,   22.9292,   22.5996,   23.5383,   26.9768,   32.1155,   34.2785,   36.7730,   38.2025,   38.2075,  999.0000,  999.0000,  999.0000,   44.9663,   46.6006,  999.0000,  999.0000,  999.0000,  999.0000,  999.0000,  999.0000,  999.0000,  999.0000,  999.0000,  999.0000,  999.0000,  999.0000,  999.0000,
 27-OCT-1996 22:45:47.83,   -5.4968,   -4.6698,   -2.6824,   -1.7858,   -0.7089,   -0.0790,  999.0000,    1.7307,    2.7517,  999.0000,  999.0000,    3.7162,    3.4158,    3.0048,    2.5751,    2.4787,    2.2962,    2.2762,    3.0216,    3.4528,  999.0000,    4.0968,    5.5497,    6.0121,    5.8145,    7.5950,    8.3513,    9.0614,    9.3661,   10.0040,   11.7551,   14.2956,   17.0925,   19.3449,   22.4231,   24.9630,   24.9944,   23.2809,   22.9065,   22.7102,   24.0381,   27.6726,   32.4331,   36.1081,   37.2216,   38.3577,   38.5625,   39.2611,   36.4155,   36.5115,  999.0000,   46.8013,   48.1320,  999.0000,  999.0000,  999.0000,  999.0000,  999.0000,   52.9492,   51.2566,   51.3102,   52.4277,   51.1068,   49.5718,   50.8584,
 27-OCT-1996 22:48:28.82,   -5.1868,   -5.0017,  999.0000,  999.0000,  999.0000,   -0.3029,    0.2174,    1.9741,    1.8711,    2.2086,    3.3793,    3.8114,    3.4884,    2.9856,    2.2202,  999.0000,    2.3529,    2.8758,    3.1641,  999.0000,  999.0000,    3.7568,    5.0949,    3.7408,    5.8582,    7.0744,    8.7477,    7.7063,    9.7134,   10.7222,   11.5550,   14.1660,   16.2649,   19.3173,   22.8291,   24.7136,  999.0000,   22.9922,   23.2365,   23.1302,   25.4365,   27.4599,   32.1128,  999.0000,  999.0000,   38.3298,   38.3777,   39.1043,  999.0000,  999.0000,  999.0000,   46.4653,   47.7892,   49.7462,   52.7854,  999.0000,   55.0838,  999.0000,   52.8898,   52.7710,  999.0000,  999.0000,   51.3337,  999.0000,   51.0292,
 27-OCT-1996 22:51:09.40,   -5.0229,   -3.6228,   -2.7604,   -2.7179,   -2.6340,  999.0000,  999.0000,  999.0000,    1.5132,    2.0031,  999.0000,    3.3651,    3.5954,    3.0637,    2.2592,    2.0591,    2.6104,    3.3694,    3.6025,    4.0403,    4.9175,    5.0990,    5.0413,    4.9133,    6.6715,    7.3250,    8.4523,    8.3195,    9.5976,   10.3820,   11.9546,   14.0638,   16.1914,   18.9535,   22.5561,   25.1627,   25.4640,   23.1509,   23.0265,   22.9576,   23.6314,   26.8934,   31.9061,   35.9567,   38.0448,   38.3095,   38.1463,  999.0000,  999.0000,  999.0000,  999.0000,   45.8147,   47.4579,   49.3310,   51.9019,  999.0000,   55.4429,   54.7999,   53.6387,   53.2188,  999.0000,   53.6150,  999.0000,  999.0000,   50.6653,
 27-OCT-1996 22:53:49.90,   -4.1895,   -3.0183,   -3.0045,   -2.4588,  999.0000,  999.0000,  999.0000,  999.0000,  999.0000,  999.0000,    4.2822,    4.2967,    4.1708,    3.5227,    2.1046,    2.2898,    2.9339,    3.5982,    3.4568,    5.0013,    4.9162,    5.2979,    5.1565,    6.4055,    7.0181,    8.0471,    9.0730,    9.3422,    9.8915,   10.5973,   12.1624,   14.3629,   16.4741,   18.9479,   22.6257,   25.5567,   25.8694,   23.4494,   22.8367,   22.9450,   23.6255,   27.0123,   31.6275,   35.4907,   37.7008,   38.7525,  999.0000,  999.0000,  999.0000,  999.0000,  999.0000,   45.3591,   47.1772,   48.5599,  999.0000,  999.0000,  999.0000,  999.0000,  999.0000,  999.0000,  999.0000,  999.0000,   51.0604,   50.4631,   50.5728,
 27-OCT-1996 22:56:30.98,   -3.6815,   -3.6879,   -3.8196,  999.0000,  999.0000,  999.0000,  999.0000,    2.2930,    2.6535,    4.0312,    5.0668,    4.7470,    4.3287,    2.9410,    2.2532,    2.3018,    2.9701,    3.3632,    3.3759,    4.0036,    4.1091,  999.0000,  999.0000,    5.9771,    7.7086,    8.0839,    9.4623,    8.6587,    8.5941,   10.1569,   12.3457,   14.3964,   16.7541,   19.6024,   23.2188,   26.0165,   26.8709,   22.7885,   22.7199,   23.0688,   24.1514,   27.7929,   32.2774,   35.7513,   37.7368,   38.2369,   38.2582,  999.0000,  999.0000,  999.0000,  999.0000,  999.0000,   47.4904,   48.9482,   50.8094,   54.1574,  999.0000,  999.0000,  999.0000,   54.1820,   54.3835,  999.0000,   51.5022,   51.0526,   50.4026,
 27-OCT-1996 22:59:13.07,   -2.9888,   -2.9044,   -2.1416,   -1.2352,  999.0000,   -0.0603,    0.3791,  999.0000,  999.0000,    3.5062,    4.7232,  999.0000,    4.4427,    2.7175,    2.4531,    1.3714,    2.6690,    3.2174,    3.2889,    3.4635,    4.1806,    3.3349,    4.9973,    6.3856,    6.8646,    8.4337,    9.3736,    9.6474,   10.6235,   10.5178,   12.6680,   14.5219,   17.0683,   20.0308,   23.9772,   26.6359,   25.1413,   22.6337,   22.7512,   23.5124,   25.1515,   28.2539,   32.4905,   36.0239,   36.8933,   38.4402,   38.8041,  999.0000,  999.0000,  999.0000,  999.0000,  999.0000,  999.0000,  999.0000,  999.0000,   53.2570,   53.4624,   54.6842,   54.6976,   54.1894,  999.0000,   52.9095,   51.6820,   50.9807,   50.9861,
 27-OCT-1996 23:01:50.34,   -3.1834,   -3.1820,   -3.2712,  999.0000,  999.0000,  999.0000,  999.0000,    1.6418,    1.9427,    3.1954,    4.4249,    4.1507,    4.3456,  999.0000,  999.0000,  999.0000,    1.7336,    2.4087,    3.0245,    3.5276,  999.0000,  999.0000,  999.0000,  999.0000,    7.4579,    8.5293,    8.9713,   10.1614,   10.0806,   10.8193,   12.3697,   14.1140,   16.4736,   19.5751,   23.7912,   26.3228,   27.2371,   23.4703,   23.0053,   23.2045,   25.9624,   27.0872,   31.7053,   35.6487,  999.0000,  999.0000,  999.0000,  999.0000,  999.0000,  999.0000,  999.0000,   46.4242,   48.7425,   49.6157,   51.7244,   54.0855,   54.6734,   54.2598,  999.0000,  999.0000,   54.8356,   53.9886,   51.5910,   50.9913,   51.0941,
 27-OCT-1996 23:04:29.52,   -4.2161,   -4.8820,   -4.8172,   -3.3052,  999.0000,  999.0000,  999.0000,  999.0000,  999.0000,  999.0000,  999.0000,    3.4243,    3.7102,    2.4763,  999.0000,    0.3336,    0.4909,    1.8598,    2.9091,    3.6380,    2.8585,    3.3327,    3.9710,    4.6177,    5.8739,    8.8993,    7.5306,    8.5904,    8.5413,   10.2140,   11.8106,   13.8224,   16.2008,   19.0762,   22.7125,   25.5977,  999.0000,   23.5705,   22.5509,   23.0034,   23.7583,   27.0340,   31.5269,   35.2679,   37.3101,   37.2340,   38.5637,  999.0000,  999.0000,  999.0000,  999.0000,   46.7683,   48.6498,   49.2972,   51.4920,   53.3881,   55.5806,  999.0000,  999.0000,   52.8393,   53.0601,  999.0000,   50.8840,  999.0000,  999.0000,
 27-OCT-1996 23:07:06.89,   -3.2423,   -3.7131,   -3.3116,   -2.7955,   -0.8756,   -0.0419,  999.0000,    1.1007,    1.8532,    2.5797,    2.6546,    2.4295,    2.8364,    2.1097,    3.1288,  999.0000,    0.8118,    1.4367,    1.8939,    2.3209,    2.6552,    2.4887,    2.5874,    3.1773,    4.6402,    6.9711,    6.7716,    7.1196,    5.4114,    9.6830,   11.2471,   13.1391,   15.5644,   18.4273,   21.9374,   25.2548,   25.3189,   23.3797,   22.3352,   22.8244,   23.1672,   26.2159,   30.1679,   33.6024,   37.0014,   37.2995,   38.8494,  999.0000,  999.0000,  999.0000,  999.0000,  999.0000,   48.1575,   48.7855,   50.8846,   52.3252,   54.7457,   55.1738,   53.9018,   53.7987,   54.1474,  999.0000,   51.3052,   50.5675,  999.0000,
 27-OCT-1996 23:09:45.85,   -4.3908,  999.0000,  999.0000,  999.0000,  999.0000,  999.0000,  999.0000,    0.7964,    1.1392,    2.3142,    3.0202,    3.5216,    2.9156,    1.7645,  999.0000,    0.1186,    0.8446,  999.0000,    1.8836,    2.3746,    2.6293,    3.1450,    3.4527,    3.4854,    5.1471,    6.8479,    7.1085,  999.0000,    8.7057,    9.9715,   11.1284,   12.3456,   14.1876,   17.5986,   21.2114,   24.8790,   24.8056,   23.0043,   21.8949,   22.2588,   22.9006,   26.1758,   30.9557,   34.6822,   37.4653,   38.7763,   39.0691,   40.5929,   39.9058,   41.5435,   44.3577,   47.0519,   48.7947,   50.4523,   51.7878,   52.6797,  999.0000,  999.0000,   54.9231,   54.4249,   54.7147,   56.0339,  999.0000,   50.6050,  999.0000,
 27-OCT-1996 23:12:25.05,   -5.2870,  999.0000,  999.0000,   -3.1554,   -1.8621,   -0.2329,  999.0000,  999.0000,    1.6473,    3.2627,    3.8498,    3.9099,    2.8497,    2.1034,    1.2832,    0.5345,    1.1425,    2.1427,    2.6587,    3.6465,    3.5075,    3.7083,    4.3476,    4.3246,    6.6921,    8.1884,    8.4856,    9.0275,    9.1982,    9.7369,   11.2009,   12.6471,  999.0000,  999.0000,  999.0000,   25.1374,   25.2170,   23.0748,   22.0220,   22.5925,   23.8162,   27.4833,   31.9579,   35.4504,   37.3394,   38.4171,  999.0000,  999.0000,  999.0000,  999.0000,   45.0546,   47.5732,   48.9492,   51.9889,   53.6068,   55.0677,   56.5241,   56.8210,   56.5128,   55.0114,   54.4414,   55.0302,   52.3321,   50.2622,   49.9979,
 27-OCT-1996 23:15:01.97,   -5.4650,   -5.0630,   -4.7926,  999.0000,  999.0000,  999.0000,  999.0000,  999.0000,  999.0000,  999.0000,    3.1508,    3.6089,    2.6661,    2.2587,    0.9439,    0.2566,    1.9434,    2.8843,    3.0917,    3.1749,    3.3083,    3.7230,    4.2852,    4.3563,    7.4082,    8.3806,    7.9439,    8.6150,    9.1301,    9.5434,   10.8962,   13.1321,   15.1966,   18.0822,   21.3539,   25.3146,   25.6718,   23.5383,   22.6071,   22.9733,   24.2220,   28.1076,   32.6527,   35.9119,   37.2961,   38.3629,   41.4337,   41.9310,  999.0000,  999.0000,  999.0000,  999.0000,  999.0000,  999.0000,  999.0000,   56.3896,   57.9403,   57.3998,   55.7303,   55.7525,   54.8584,   53.9169,   52.8589,   50.2042,  999.0000,
 27-OCT-1996 23:17:38.92,   -5.1129,   -3.8884,   -3.3624,   -3.2292,  999.0000,  999.0000,  999.0000,  999.0000,    1.0341,    2.7097,    3.0398,  999.0000,    2.3072,    1.9740,  999.0000,  999.0000,  999.0000,    2.0399,    2.3351,    2.2285,    2.5136,    2.9781,  999.0000,    4.1276,    6.0587,    8.1459,    7.8239,  999.0000,  999.0000,   10.1841,   11.3735,   13.1063,  999.0000,  999.0000,  999.0000,   25.4293,   25.3712,   23.4090,   22.5010,   22.8627,   24.2132,   27.7676,   32.1210,   35.7369,   37.0606,   38.2493,   40.6243,   40.3630,   40.5050,   43.6850,   46.8918,   48.8312,   49.4758,   50.8417,   51.7625,  999.0000,  999.0000,  999.0000,  999.0000,   56.0614,   55.0225,  999.0000,   53.2668,   51.2125,   49.2784,
 27-OCT-1996 23:20:17.90,   -5.5868,   -5.3207,   -5.1317,  999.0000,   -4.5909,   -2.8502,  999.0000,  999.0000,  999.0000,  999.0000,    3.2130,    3.5058,    1.8954,    0.8624,    0.5756,    0.3593,    1.1475,    1.5121,    1.8949,    2.5959,  999.0000,  999.0000,    4.3374,    5.0747,    5.9457,    7.7479,    7.7581,    8.2948,  999.0000,    9.3115,   11.6342,   13.2128,   15.3670,   18.2124,  999.0000,   25.1349,   25.6661,   24.0398,   22.4517,   22.8510,   24.1207,   27.7134,   32.0770,   35.4553,   36.9301,   38.1203,  999.0000,  999.0000,   42.1752,   43.5477,   47.0150,   48.7401,  999.0000,  999.0000,  999.0000,  999.0000,  999.0000,   57.3961,   57.6652,   55.9974,   54.7685,  999.0000,  999.0000,   50.2717,   49.3736,
 27-OCT-1996 23:22:55.11,   -5.8878,   -5.8133,   -5.8787,  999.0000,   -3.9113,   -2.4064,   -1.3769,  999.0000,    4.5602,    5.0290,  999.0000,    2.8225,    1.7201,    1.1005,    1.2119,  999.0000,    1.9856,    1.9211,    2.3902,    2.8536,  999.0000,    3.0704,    3.8081,    5.5163,    6.5339,    7.8988,    7.8277,    8.8208,    9.8830,   10.7020,   11.1643,   13.2671,   15.1680,   18.3322,  999.0000,   24.7151,   25.1202,   23.8739,   22.6391,   23.1285,   24.1892,   27.5262,   31.9625,   35.4061,   37.0311,   38.3992,   40.0295,  999.0000,  999.0000,  999.0000,  999.0000,   48.8176,   50.6059,   51.1385,   53.0395,   54.8771,  999.0000,  999.0000,  999.0000,   55.6904,   54.3516,  999.0000,  999.0000,  999.0000,   51.3156,
 27-OCT-1996 23:25:34.22,   -5.5151,   -5.7561,   -7.0303,   -6.1134,   -2.3217,  999.0000,  999.0000,    1.1450,    0.4575,    1.7402,    2.2092,    2.1866,    2.4350,    2.1883,    1.1303,    0.7709,  999.0000,    1.3644,    1.9037,    2.3929,  999.0000,  999.0000,    2.7132,    5.0225,    6.3501,    7.3494,    7.9641,    7.8809,    8.2392,  999.0000,  999.0000,   12.6659,   14.9513,   17.9488,   22.0590,   25.5559,   24.9490,   23.5448,   22.4171,   22.6399,   23.6422,   26.7137,   31.1529,   35.5678,   37.5619,   37.9528,  999.0000,  999.0000,  999.0000,  999.0000,   46.7106,   47.7874,   48.6937,   50.4407,   52.9647,   56.1732,   57.9616,   59.0404,   59.1509,   56.9811,   55.4483,  999.0000,  999.0000,  999.0000,   51.4744,
 27-OCT-1996 23:28:13.48,   -4.7551,   -4.5749,  999.0000,  999.0000,   -1.7046,   -0.3200,   -0.0762,  999.0000,    1.9882,    2.9936,    2.9534,    2.6899,    2.8818,    2.1199,    1.2168,  999.0000,    0.9524,    1.3921,    1.4220,    1.9038,    2.7738,    2.9654,    2.8885,    3.3976,    6.0786,    6.5369,    8.9258,    8.9681,    7.6810,   10.0122,   11.0663,   12.2641,   14.1935,   17.5718,   21.0196,   24.7419,   25.6277,   23.6908,   22.9260,   22.8172,   23.7475,   26.5826,   30.9600,   34.8720,   37.1083,   37.8726,   39.4770,   38.9986,  999.0000,   43.6284,   47.2553,  999.0000,   48.9136,  999.0000,  999.0000,  999.0000,  999.0000,  999.0000,   59.2340,   57.6595,   56.2756,  999.0000,   49.5567,   50.1373,   51.5284,
 27-OCT-1996 23:30:50.38,   -5.4662,   -5.4040,   -5.3968,  999.0000,  999.0000,   -0.8011,   -0.2646,    0.7523,    2.4420,    3.1105,    3.1064,    3.0951,    2.9178,    1.9950,    0.6678,   -0.0635,    1.2037,    1.9954,    1.8791,    1.9497,    2.7153,    3.1441,  999.0000,    4.4322,    6.0200,    7.2653,    7.8439,    9.0774,    8.9780,   10.5724,   11.7045,   12.7983,   15.9532,   17.3062,   21.1093,   24.6874,   25.8083,   23.6448,   23.0424,   23.1535,   23.8754,   27.0854,   31.4571,   34.9073,   37.0107,   38.5627,   39.1688,  999.0000,   41.1656,   44.6452,   47.6867,   48.4712,   48.9404,   50.0999,   54.0466,   57.5107,   59.4391,   59.4235,   59.6019,   58.9864,   57.3117,  999.0000,   50.5912,   50.0227,   51.1309,
 27-OCT-1996 23:33:29.35,   -5.0526,   -5.1688,   -5.3153,   -5.3275,  999.0000,  999.0000,  999.0000,    1.3148,    2.1442,    2.6864,    2.9558,    2.8224,    2.3929,    1.7903,    0.4628,    0.1540,    1.1781,    1.9967,    2.0492,    2.1114,    2.8448,    3.4358,    4.4920,    4.9469,    6.7245,    7.7559,    8.4826,    8.4534,    9.6378,   11.0484,   12.4273,   13.7116,   16.6440,  999.0000,  999.0000,   25.2039,   25.4761,   23.6882,   23.1900,   23.3764,   25.1556,   28.3056,   32.7436,   36.2980,   37.8658,   39.2944,   40.1315,   40.4991,   42.5209,   46.0863,  999.0000,  999.0000,  999.0000,  999.0000,  999.0000,   56.7717,   58.5852,   59.2223,  999.0000,   58.6040,   56.8852,   56.4105,  999.0000,   51.2801,  999.0000,
 27-OCT-1996 23:36:08.58,   -5.5369,   -5.5842,   -5.3962,  999.0000,  999.0000,   -1.0714,   -0.6064,   -0.3669,    0.8957,    2.1047,    2.5658,    2.4033,    2.4496,    0.6139,    0.5091,    0.4946,    1.2206,    1.8744,    1.9588,    2.1227,    3.1541,    3.8365,    4.5702,    5.6014,    7.2212,    7.9064,    8.8003,    9.3960,    9.2909,   11.2268,   12.6255,   13.9351,   15.6316,   18.4859,   23.0149,   25.4773,   25.5820,   23.6661,   23.3044,   23.6059,   25.1581,   29.4962,   33.7765,   36.6046,  999.0000,   39.6883,   40.6320,   43.4803,   43.7584,   47.3175,  999.0000,   52.0020,   51.7849,   51.7835,  999.0000,  999.0000,  999.0000,   59.3719,  999.0000,   58.7353,  999.0000,   55.8012,  999.0000,   51.2281,  999.0000,
 27-OCT-1996 23:38:45.76,   -6.7207,   -6.1872,  999.0000,  999.0000,   -3.0794,   -2.3514,   -2.0463,   -1.3742,   -0.5310,    2.2341,    2.8068,    2.2929,  999.0000,   -0.6383,   -0.6584,   -0.3179,    1.3746,    1.6731,    1.8851,    2.0179,    3.0359,    3.7253,    4.6481,    5.3489,    7.1427,    8.0468,    9.0459,    9.8590,    9.8043,   11.7539,   12.7766,   14.2161,   15.7408,   18.5592,   22.8245,   25.5537,   25.7125,   23.6784,   23.1374,   23.8234,   25.6121,   30.0525,   34.5041,   37.0013,   37.2949,   39.5499,   39.8689,  999.0000,   43.7899,  999.0000,  999.0000,  999.0000,  999.0000,  999.0000,   53.9501,  999.0000,  999.0000,  999.0000,  999.0000,  999.0000,   55.5550,   55.1865,   51.9700,  999.0000,  999.0000,
 27-OCT-1996 23:41:24.09,   -6.0790,   -5.8087,   -5.4913,  999.0000,  999.0000,  999.0000,  999.0000,  999.0000,    0.9729,    2.1300,    2.4581,  999.0000,    1.9008,    1.3306,    0.1338,    0.0901,    1.1682,    1.6609,    2.0537,    2.3097,    3.0222,    3.2569,    3.8858,    5.5090,    6.7756,    7.8202,    8.6530,    9.4325,   10.2288,   11.4417,   12.6181,   14.1192,   15.2788,  999.0000,   23.8656,   25.2347,   25.7186,   24.0546,   23.1450,   23.3986,   25.4145,   29.6235,   34.3374,  999.0000,   35.7644,  999.0000,  999.0000,  999.0000,   44.0685,   48.1553,   50.5017,   50.2366,  999.0000,   51.3512,   54.2893,   57.3219,   59.1005,   60.2293,   61.4427,   60.9603,  999.0000,  999.0000,   53.2203,  999.0000,  999.0000,
 27-OCT-1996 23:44:01.13,   -5.4847,   -5.1264,   -4.9612,  999.0000,   -0.9530,   -0.0540,  999.0000,    1.4681,    2.6434,    2.6323,    2.8783,    2.7460,    2.5266,    2.0553,    1.2984,    0.7203,    1.7000,  999.0000,    2.3239,    2.5821,    3.2245,    3.7855,    4.3570,    5.3792,    6.5557,    7.3218,    7.9701,    8.3996,    9.6006,   11.4176,   12.9586,   14.1670,   15.5753,   18.3819,   24.0436,   25.0055,   24.7802,   24.0482,   23.3421,   23.6342,   25.9060,  999.0000,   35.0108,   37.2765,  999.0000,  999.0000,   39.9672,   41.5989,  999.0000,   48.9225,   50.9020,   50.8099,   51.1600,   52.6251,   56.4548,   59.0771,   61.1745,   61.3869,   59.9012,   59.4043,   55.6952,   54.8366,   52.8876,  999.0000,  999.0000,
 27-OCT-1996 23:46:40.19,   -5.8695,   -4.8849,   -4.3096,   -3.6377,  999.0000,   -0.2993,    0.6353,    0.9979,    1.6866,    2.5947,    3.0772,    2.7102,    2.4044,    1.8942,    1.4948,    1.2534,    1.7922,    1.7166,    2.1002,    2.4915,    4.0365,    4.6972,    5.1941,    5.3834,    6.8020,    7.5200,    8.1545,    8.3671,    9.0708,   11.7229,   13.4860,   13.9657,   16.2388,   18.2186,   22.8357,   24.9626,   24.4481,   23.7309,   23.0093,   24.1571,   27.6269,   31.9099,   36.0875,   37.7369,   38.0770,   39.7187,   39.8878,   42.2909,   45.4826,   49.7365,   52.5257,   53.0516,  999.0000,  999.0000,  999.0000,   61.0079,   61.2805,  999.0000,   58.7155,   58.6182,   56.1506,   56.3076,  999.0000,   54.1554,  999.0000,
 27-OCT-1996 23:49:19.29,   -6.5390,   -6.2752,   -6.0299,  999.0000,   -1.8549,   -0.1941,  999.0000,    2.1619,    1.7531,    2.6431,    2.5331,    2.0977,    2.1310,    1.4972,    1.1576,    1.2309,    1.4681,    1.1983,    2.1730,    2.8848,    4.2965,    4.4145,    4.4122,    6.3495,    6.8315,    7.9213,    8.8383,    9.7852,    9.8403,   12.0718,   14.0273,   15.2693,   16.5284,   18.9016,   23.2484,   25.1692,   24.6034,   23.5747,   23.3370,   24.3994,   28.1832,   33.0870,   36.6908,   37.8371,   38.8422,   39.6717,   40.0365,   42.7483,   45.7359,   50.0864,  999.0000,   53.4978,   53.0709,   55.8358,   57.9421,   60.5258,   61.2922,   61.8135,   60.7742,   59.7591,   56.4961,   55.3993,   53.0780,   54.1495,  999.0000,
 27-OCT-1996 23:51:58.69,   -4.5827,   -4.4160,  999.0000,  999.0000,   -1.0401,   -0.0811,    1.8363,    2.7377,    2.0991,    3.2188,    2.7968,    2.4578,    2.3652,    2.1962,    2.3021,    1.7975,    2.3977,    2.8650,    2.8777,    3.1712,    4.2952,    4.6588,    5.4678,    6.2471,    6.8816,    7.5597,    8.6093,   10.0138,    8.3035,   12.7331,   14.6888,   14.9531,   16.7545,   19.9108,   25.1058,   25.9023,   24.6265,   23.5999,   23.3748,   25.6062,   29.7442,   34.2452,   36.9302,   37.8791,   38.9619,  999.0000,  999.0000,   42.8268,   45.9024,   49.8669,   51.3467,   52.9850,   52.5439,   56.0395,  999.0000,   57.3903,   58.7739,  999.0000,  999.0000,   60.0971,  999.0000,   55.3479,   53.2657,   53.9688,  999.0000,
 27-OCT-1996 23:54:37.69,   -5.7692,   -5.1126,  999.0000,  999.0000,  999.0000,  999.0000,  999.0000,  999.0000,    2.6722,    2.9418,    2.4160,    2.3993,    2.5156,    2.1899,    2.1573,    1.6348,    2.0651,    2.2520,    2.6603,    2.7906,    4.7352,    5.7919,    5.9288,    6.2508,    7.2843,    7.7915,    8.4538,   10.1580,   10.2074,   12.8758,   14.6586,   14.8539,   16.5578,   20.0849,   23.9807,   25.8933,   23.9854,   23.1134,   23.6092,   26.3504,   31.1426,   35.3761,   37.1792,   37.8588,   39.1797,   39.2942,   39.6228,   42.4944,  999.0000,   50.3163,  999.0000,   53.0757,   52.7256,   55.2550,   58.4446,   58.7608,   60.0157,  999.0000,  999.0000,   58.5353,   57.1737,  999.0000,   53.5196,   53.6451,   53.4389,
 27-OCT-1996 23:57:17.56,   -6.1240,   -5.6921,  999.0000,  999.0000,   -1.9102,   -0.2006,    0.2763,  999.0000,    1.7772,    1.7346,    2.1737,    2.5210,    2.1803,    1.8213,    1.2680,    1.2384,    2.0899,    2.2005,    2.7583,    2.8708,    2.9045,    4.0119,    5.4019,    5.0564,    5.7736,    7.0697,    6.2745,    7.5785,    9.4287,   11.7552,   14.0206,  999.0000,  999.0000,  999.0000,   24.1062,   24.8636,   23.0806,   21.9976,   23.0909,   26.4322,   31.0017,   35.5098,   37.3828,   37.4468,   38.5996,   38.7222,   39.3779,   42.2807,   44.9849,   48.8220,  999.0000,  999.0000,  999.0000,  999.0000,   58.1842,   60.0601,   60.7151,   61.1735,   61.7195,   60.1408,  999.0000,  999.0000,   54.6468,   53.2527,  999.0000,
 27-OCT-1996 23:59:56.63,   -6.2314,   -5.7751,   -5.5090,   -4.4768,  999.0000,  999.0000,  999.0000,  999.0000,  999.0000,    2.9002,    3.0222,    3.3257,    2.6303,    2.0511,    0.6453,    0.8584,    1.9654,    2.2894,    2.6752,    2.8805,    3.3418,    3.5556,    4.0269,    5.5542,    5.4578,    6.9692,    6.9386,    7.3347,    8.4282,   11.1597,   13.4216,   13.6419,   15.4742,   18.4562,   22.5289,   24.5486,   23.4873,   22.0069,   22.6798,   25.3971,   30.0941,   34.2494,   37.1591,   37.7028,   38.7524,   38.8685,  999.0000,   41.8198,   44.2145,   47.8967,   51.3891,   52.9144,   53.0121,   54.9375,   56.8433,  999.0000,   61.5362,   61.5834,   60.1060,  999.0000,   57.1833,  999.0000,  999.0000,   52.9718,   53.1364,
